Latitude: N 50° 09' 49" Longitude: W 05° 11' 53" Elevation: 168m ASL

There are 6 visitors online

Adverts

<- Previous Day | Today | Next Day ->

All Data for 13 March 2018

Time
A - D
Temp
A - D
Dew Point
A - D
Humidity
A - D
Pressure
A - D
Wind
A - D
Wind Dir Gust
A - D
Rain Rate
A - D
Rain Total
00:00 7.3 7.2 99 1005.2 6.9 W 13.0 0.0 0.0
00:01 7.3 7.2 99 1005.0 6.9 W 13.0 0.0 0.0
00:03 7.3 7.2 99 1005.4 6.9 W 13.0 0.0 0.0
00:04 7.3 7.2 99 1005.1 6.9 W 10.7 0.0 0.0
00:05 7.3 7.2 99 1005.2 6.9 W 10.7 0.0 0.0
00:07 7.3 7.2 99 1005.4 13.0 W 13.0 0.0 0.0
00:08 7.4 7.3 99 1005.2 9.8 NW 13.0 0.0 0.0
00:10 7.3 7.2 99 1005.2 9.8 WSW 15.2 0.0 0.0
00:11 7.3 7.2 99 1005.1 8.3 N 15.2 0.0 0.0
00:13 7.2 7.1 99 1005.2 9.8 NW 15.2 0.0 0.0
00:14 7.3 7.2 99 1005.3 9.2 W 15.2 0.0 0.0
00:16 7.3 7.2 99 1005.2 8.3 W 15.2 0.0 0.0
00:17 7.3 7.2 99 1005.4 10.7 W 15.2 0.0 0.0
00:18 7.3 7.2 99 1005.3 8.3 W 15.2 0.0 0.0
00:19 7.3 7.2 99 1005.5 7.6 WSW 15.2 0.0 0.0
00:20 7.3 7.2 99 1005.4 8.3 WSW 10.7 0.0 0.0
00:21 7.3 7.2 99 1005.4 11.4 NW 11.4 0.0 0.0
00:22 7.3 7.2 99 1005.3 7.6 WSW 11.4 0.0 0.0
00:23 7.3 7.2 99 1005.2 9.8 WSW 11.4 0.0 0.0
00:24 7.3 7.2 99 1005.3 7.6 WSW 11.4 0.0 0.0
00:25 7.3 7.2 99 1005.3 7.6 NW 11.4 0.0 0.0
00:27 7.3 7.2 99 1005.3 12.1 W 13.6 0.0 0.0
00:28 7.3 7.2 99 1005.2 13.0 WSW 13.6 0.0 0.0
00:29 7.2 7.1 99 1005.4 12.1 W 13.6 0.0 0.0
00:30 7.2 7.1 99 1005.5 11.4 W 14.5 0.0 0.0
00:31 7.2 7.1 99 1005.5 8.3 W 14.5 0.0 0.0
00:32 7.2 7.1 99 1005.5 11.4 W 14.5 0.0 0.0
00:33 7.2 7.1 99 1005.5 6.9 W 14.5 0.0 0.0
00:34 7.2 7.1 99 1005.5 8.3 N 14.5 0.0 0.0
00:36 7.1 7.0 99 1005.5 9.2 WSW 14.5 0.0 0.0
00:37 7.2 7.1 99 1005.5 8.3 W 14.5 0.0 0.0
00:38 7.1 7.0 99 1005.5 9.2 WSW 14.5 0.0 0.0
00:39 7.1 7.0 99 1005.5 12.1 W 14.5 0.0 0.0
00:40 7.1 7.0 99 1005.6 9.8 W 13.0 0.0 0.0
00:41 7.1 7.0 99 1005.5 9.8 W 13.0 0.0 0.0
00:42 7.1 7.0 99 1005.7 8.3 W 13.0 0.0 0.0
00:44 7.1 7.0 99 1005.6 8.3 W 13.0 0.0 0.0
00:45 7.0 6.9 99 1005.6 6.0 W 13.0 0.0 0.0
00:46 7.0 6.9 99 1005.5 10.7 WSW 12.1 0.0 0.0
00:47 7.0 6.9 99 1005.6 6.9 W 12.1 0.0 0.0
00:48 7.0 6.9 99 1005.6 10.7 W 12.1 0.0 0.0
00:49 7.0 6.9 99 1005.6 10.7 WSW 12.1 0.0 0.0
00:50 7.0 6.9 99 1005.8 13.0 W 13.0 0.0 0.0
00:51 7.0 6.9 99 1005.7 10.7 W 13.0 0.0 0.0
00:52 7.0 6.9 99 1005.6 13.0 NW 13.0 0.0 0.0
00:53 6.9 6.8 99 1005.6 5.4 WSW 13.0 0.0 0.0
00:54 6.9 6.8 99 1005.7 11.4 WSW 13.0 0.0 0.0
00:55 6.9 6.8 99 1005.7 7.6 WSW 13.0 0.0 0.0
00:56 6.9 6.8 99 1005.7 5.4 WSW 13.0 0.0 0.0
00:57 6.9 6.8 99 1005.9 9.8 WSW 13.0 0.0 0.0
00:58 6.9 6.8 99 1005.7 9.8 WSW 13.0 0.0 0.0
00:59 6.9 6.8 99 1005.8 6.9 N 13.0 0.0 0.0
01:00 6.9 6.8 99 1005.8 6.9 N 13.0 0.0 0.0
01:01 6.9 6.8 99 1005.6 6.9 N 13.0 0.0 0.0
01:02 6.9 6.8 99 1005.8 12.1 W 12.1 0.0 0.0
01:04 6.9 6.8 99 1005.8 9.2 WSW 12.1 0.0 0.0
01:05 6.8 6.7 99 1006.0 9.2 W 12.1 0.0 0.0
01:06 6.8 6.7 99 1005.8 8.3 W 12.1 0.0 0.0
01:07 6.9 6.8 99 1005.7 9.8 WSW 12.1 0.0 0.0
01:08 6.8 6.7 99 1005.9 9.2 W 12.1 0.0 0.0
01:09 6.8 6.7 99 1005.8 6.9 W 12.1 0.0 0.0
01:10 6.8 6.7 99 1005.9 9.2 WSW 12.1 0.0 0.0
01:11 6.8 6.7 99 1005.9 10.7 W 12.1 0.0 0.0
01:12 6.8 6.7 99 1005.9 8.3 WNW 11.4 0.0 0.0
01:13 6.8 6.7 99 1005.8 9.8 W 11.4 0.0 0.0
01:14 6.8 6.7 99 1005.9 10.7 N 11.4 0.0 0.0
01:15 6.8 6.7 99 1005.9 12.1 N 12.1 0.0 0.0
01:17 6.8 6.7 99 1006.1 7.6 W 12.1 0.0 0.0
01:18 6.8 6.7 99 1006.0 4.5 W 12.1 0.0 0.0
01:19 6.7 6.6 99 1006.1 10.7 W 12.1 0.0 0.0
01:20 6.7 6.6 99 1005.9 9.2 W 12.1 0.0 0.0
01:21 6.7 6.6 99 1006.0 7.6 W 12.1 0.0 0.0
01:22 6.7 6.6 99 1006.2 9.8 W 12.1 0.0 0.0
01:23 6.7 6.6 99 1006.1 7.6 W 12.1 0.0 0.0
01:24 6.7 6.6 99 1006.0 8.3 W 12.1 0.0 0.0
01:25 6.7 6.6 99 1006.1 10.7 W 12.1 0.0 0.0
01:26 6.7 6.6 99 1006.1 9.2 W 10.7 0.0 0.0
01:27 6.7 6.6 99 1006.1 6.9 W 10.7 0.0 0.0
01:28 6.7 6.6 99 1006.2 6.9 W 10.7 0.0 0.0
01:29 6.7 6.6 99 1006.2 10.7 WSW 10.7 0.0 0.0
01:30 6.7 6.6 99 1006.1 6.9 WSW 10.7 0.0 0.0
01:31 6.7 6.6 99 1006.1 7.6 WSW 10.7 0.0 0.0
01:32 6.7 6.6 99 1006.1 9.2 W 10.7 0.0 0.0
01:33 6.6 6.5 99 1006.2 7.6 W 10.7 0.0 0.0
01:34 6.7 6.6 99 1006.2 6.0 W 10.7 0.0 0.0
01:35 6.6 6.5 99 1006.2 8.3 WSW 10.7 0.0 0.0
01:36 6.6 6.5 99 1006.3 5.4 W 10.7 0.0 0.0
01:37 6.6 6.5 99 1006.4 7.6 W 10.7 0.0 0.0
01:39 6.6 6.5 99 1006.3 9.8 WSW 10.7 0.0 0.0
01:40 6.6 6.5 99 1006.4 10.7 WSW 10.7 0.0 0.0
01:41 6.6 6.5 99 1006.3 6.9 WSW 10.7 0.0 0.0
01:42 6.6 6.5 99 1006.3 6.9 WSW 10.7 0.0 0.0
01:43 6.6 6.5 99 1006.3 9.2 WSW 10.7 0.0 0.0
01:44 6.6 6.5 99 1006.3 6.9 WSW 10.7 0.0 0.0
01:45 6.6 6.5 99 1006.3 8.3 WSW 10.7 0.0 0.0
01:46 6.6 6.5 99 1006.4 9.2 WSW 10.7 0.0 0.0
01:47 6.6 6.5 99 1006.5 6.0 WSW 10.7 0.0 0.0
01:49 6.6 6.5 99 1006.3 6.0 W 10.7 0.0 0.0
01:50 6.6 6.5 99 1006.3 6.9 NW 9.8 0.0 0.0
01:51 6.6 6.5 99 1006.4 6.0 W 9.8 0.0 0.0
01:52 6.6 6.5 99 1006.4 6.0 W 9.8 0.0 0.0
01:53 6.6 6.5 99 1006.5 4.5 W 9.8 0.0 0.0
01:54 6.6 6.5 99 1006.4 4.5 W 9.8 0.0 0.0
01:55 6.6 6.5 99 1006.2 6.9 W 9.8 0.0 0.0
01:56 6.6 6.5 99 1006.3 6.0 WSW 9.2 0.0 0.0
01:57 6.6 6.5 99 1006.4 5.4 W 8.3 0.0 0.0
01:58 6.6 6.5 99 1006.3 5.4 WSW 6.9 0.0 0.0
01:59 6.6 6.5 99 1006.4 5.4 WSW 6.9 0.0 0.0
02:00 6.6 6.5 99 1006.3 4.5 NW 6.9 0.0 0.0
02:01 6.6 6.5 99 1006.3 4.5 NW 6.9 0.0 0.0
02:02 6.6 6.5 99 1006.3 4.5 NW 6.9 0.0 0.0
02:03 6.6 6.5 99 1006.3 4.5 NW 6.9 0.0 0.0
02:04 6.6 6.5 99 1006.3 4.5 NW 6.9 0.0 0.0
02:05 6.6 6.5 99 1006.3 4.5 NW 6.0 0.0 0.0
02:06 6.6 6.5 99 1006.2 6.0 W 6.0 0.0 0.0
02:07 6.6 6.5 99 1006.4 4.5 W 6.0 0.0 0.0
02:09 6.5 6.4 99 1006.4 7.6 W 7.6 0.0 0.0
02:10 6.5 6.4 99 1006.4 7.6 W 7.6 0.0 0.0
02:11 6.6 6.5 99 1006.2 6.9 W 7.6 0.0 0.0
02:12 6.5 6.4 99 1006.4 6.0 W 7.6 0.0 0.0
02:13 6.5 6.4 99 1006.4 5.4 W 7.6 0.0 0.0
02:14 6.5 6.4 99 1006.5 12.1 WSW 12.1 0.0 0.0
02:15 6.5 6.4 99 1006.5 5.4 W 12.1 0.0 0.0
02:16 6.5 6.4 99 1006.4 6.9 W 12.1 0.0 0.0
02:17 6.5 6.4 99 1006.5 9.2 WSW 12.1 0.0 0.0
02:18 6.5 6.4 99 1006.4 8.3 WSW 12.1 0.0 0.0
02:19 6.5 6.4 99 1006.3 5.4 WSW 12.1 0.0 0.0
02:20 6.5 6.4 99 1006.3 5.4 W 12.1 0.0 0.0
02:22 6.5 6.4 99 1006.4 6.9 W 12.1 0.0 0.0
02:23 6.5 6.4 99 1006.4 8.3 WSW 12.1 0.0 0.0
02:24 6.5 6.4 99 1006.4 9.2 W 12.1 0.0 0.0
02:25 6.5 6.4 99 1006.3 5.4 W 9.2 0.0 0.0
02:26 6.5 6.4 99 1006.3 4.5 W 9.2 0.0 0.0
02:27 6.5 6.4 99 1006.4 4.5 W 9.2 0.0 0.0
02:28 6.5 6.4 99 1006.4 6.0 W 9.2 0.0 0.0
02:29 6.5 6.4 99 1006.3 5.4 WSW 9.2 0.0 0.0
02:30 6.5 6.4 99 1006.3 5.4 W 9.2 0.0 0.0
02:31 6.5 6.4 99 1006.3 7.6 W 9.2 0.0 0.0
02:32 6.5 6.4 99 1006.2 6.0 W 9.2 0.0 0.0
02:33 6.5 6.4 99 1006.3 4.5 WSW 9.2 0.0 0.0
02:34 6.5 6.4 99 1006.4 6.0 W 7.6 0.0 0.0
02:35 6.5 6.4 99 1006.3 5.4 W 7.6 0.0 0.0
02:36 6.5 6.4 99 1006.3 3.8 W 7.6 0.0 0.0
02:37 6.4 6.3 99 1006.2 4.5 W 7.6 0.0 0.0
02:38 6.4 6.3 99 1006.2 5.4 W 7.6 0.0 0.0
02:40 6.4 6.3 99 1006.2 4.5 W 7.6 0.0 0.0
02:41 6.4 6.3 99 1006.2 5.4 W 7.6 0.0 0.0
02:42 6.4 6.3 99 1006.1 4.5 W 7.6 0.0 0.0
02:43 6.4 6.3 99 1006.2 7.6 W 7.6 0.0 0.0
02:44 6.4 6.3 99 1006.2 6.0 WSW 7.6 0.0 0.0
02:45 6.4 6.3 99 1006.4 4.5 WSW 7.6 0.0 0.0
02:46 6.4 6.3 99 1006.3 6.9 W 7.6 0.0 0.0
02:47 6.3 6.2 99 1006.2 4.5 W 7.6 0.0 0.0
02:48 6.3 6.2 99 1006.4 5.4 W 7.6 0.0 0.0
02:49 6.3 6.2 99 1006.5 6.0 W 7.6 0.0 0.0
02:50 6.3 6.2 99 1006.4 4.5 WSW 7.6 0.0 0.0
02:51 6.3 6.2 99 1006.2 6.0 W 7.6 0.0 0.0
02:52 6.3 6.2 99 1006.4 6.0 W 7.6 0.0 0.0
02:53 6.2 6.1 99 1006.6 6.9 N 6.9 0.0 0.0
02:54 6.3 6.2 99 1006.5 6.0 N 6.9 0.0 0.0
02:55 6.2 6.1 99 1006.5 3.8 W 6.9 0.0 0.0
02:56 6.2 6.1 99 1006.5 5.4 N 6.9 0.0 0.0
02:58 6.2 6.1 99 1006.4 3.8 W 6.9 0.0 0.0
02:59 6.2 6.1 99 1006.4 4.5 WSW 6.9 0.0 0.0
03:00 6.2 6.1 99 1006.4 5.4 W 6.9 0.0 0.0
03:01 6.2 6.1 99 1006.6 5.4 W 6.9 0.0 0.0
03:02 6.2 6.1 99 1006.5 5.4 W 6.9 0.0 0.0
03:03 6.2 6.1 99 1006.4 5.4 W 6.9 0.0 0.0
03:04 6.2 6.1 99 1006.5 5.4 W 6.9 0.0 0.0
03:05 6.2 6.1 99 1006.4 5.4 W 6.9 0.0 0.0
03:06 6.1 6.0 99 1006.4 3.8 W 6.9 0.0 0.0
03:07 6.1 6.0 99 1006.4 4.5 WSW 6.9 0.0 0.0
03:08 6.0 5.9 99 1006.5 3.8 N 5.4 0.0 0.0
03:09 6.0 5.9 99 1006.4 3.1 W 5.4 0.0 0.0
03:10 6.0 5.9 99 1006.5 3.1 W 5.4 0.0 0.0
03:11 6.0 5.9 99 1006.5 3.8 W 5.4 0.0 0.0
03:12 6.0 5.9 99 1006.6 3.1 W 5.4 0.0 0.0
03:13 6.0 5.9 99 1006.5 3.1 W 5.4 0.0 0.0
03:14 6.0 5.9 99 1006.5 3.8 W 5.4 0.0 0.0
03:15 5.9 5.8 99 1006.6 3.1 W 5.4 0.0 0.0
03:17 5.9 5.8 99 1006.6 5.4 W 5.4 0.0 0.0
03:18 5.9 5.8 99 1006.5 3.1 W 5.4 0.0 0.0
03:19 5.9 5.8 99 1006.4 3.1 W 5.4 0.0 0.0
03:20 5.9 5.8 99 1006.5 2.2 W 5.4 0.0 0.0
03:21 5.9 5.8 99 1006.5 3.8 W 5.4 0.0 0.0
03:22 5.8 5.7 99 1006.5 3.1 WSW 5.4 0.0 0.0
03:23 5.8 5.7 99 1006.6 3.8 W 5.4 0.0 0.0
03:24 5.7 5.6 99 1006.4 3.8 W 5.4 0.0 0.0
03:25 5.8 5.7 99 1006.4 3.8 W 5.4 0.0 0.0
03:26 5.7 5.6 99 1006.4 3.8 W 5.4 0.0 0.0
03:27 5.7 5.6 99 1006.5 3.8 N 3.8 0.0 0.0
03:28 5.7 5.6 99 1006.4 3.1 N 3.8 0.0 0.0
03:29 5.6 5.5 99 1006.6 4.5 WSW 4.5 0.0 0.0
03:30 5.6 5.5 99 1006.4 3.8 WSW 4.5 0.0 0.0
03:31 5.6 5.5 99 1006.5 3.8 W 4.5 0.0 0.0
03:32 5.6 5.5 99 1006.5 3.8 W 4.5 0.0 0.0
03:33 5.6 5.5 99 1006.7 3.1 W 4.5 0.0 0.0
03:34 5.6 5.5 99 1006.5 3.1 W 4.5 0.0 0.0
03:35 5.6 5.5 99 1006.6 5.4 W 5.4 0.0 0.0
03:37 5.5 5.4 99 1006.7 3.1 W 5.4 0.0 0.0
03:38 5.5 5.4 99 1006.5 3.1 W 5.4 0.0 0.0
03:39 5.5 5.4 99 1006.6 3.1 W 5.4 0.0 0.0
03:40 5.5 5.4 99 1006.5 3.1 W 5.4 0.0 0.0
03:41 5.5 5.4 99 1006.5 3.1 W 5.4 0.0 0.0
03:42 5.5 5.4 99 1006.6 3.1 W 5.4 0.0 0.0
03:43 5.4 5.3 99 1006.5 2.2 W 5.4 0.0 0.0
03:44 5.4 5.3 99 1006.6 4.5 W 5.4 0.0 0.0
03:45 5.4 5.3 99 1006.6 3.8 W 5.4 0.0 0.0
03:46 5.4 5.3 99 1006.6 3.8 W 4.5 0.0 0.0
03:47 5.4 5.3 99 1006.6 3.8 W 4.5 0.0 0.0
03:48 5.4 5.3 99 1006.7 4.5 WSW 4.5 0.0 0.0
03:49 5.4 5.3 99 1006.7 3.1 WSW 4.5 0.0 0.0
03:50 5.4 5.3 99 1006.6 4.5 WSW 4.5 0.0 0.0
03:51 5.3 5.2 99 1006.6 3.1 WSW 4.5 0.0 0.0
03:52 5.3 5.2 99 1006.6 2.2 WSW 4.5 0.0 0.0
03:53 5.3 5.2 99 1006.7 2.2 WSW 4.5 0.0 0.0
03:54 5.3 5.2 99 1006.7 2.2 WSW 4.5 0.0 0.0
03:56 5.2 5.1 99 1006.7 3.8 WSW 4.5 0.0 0.0
03:57 5.2 5.1 99 1006.8 3.1 W 4.5 0.0 0.0
03:58 5.2 5.1 99 1006.8 4.5 S 4.5 0.0 0.0
03:59 5.1 5.0 99 1006.8 3.8 S 4.5 0.0 0.0
04:00 5.1 5.0 99 1006.8 4.5 WSW 4.5 0.0 0.0
04:01 5.1 5.0 99 1006.8 4.5 WSW 4.5 0.0 0.0
04:02 5.1 5.0 99 1006.8 4.5 WSW 4.5 0.0 0.0
04:03 5.1 5.0 99 1006.8 4.5 WSW 4.5 0.0 0.0
04:04 5.1 5.0 99 1006.8 4.5 WSW 4.5 0.0 0.0
04:05 5.1 5.0 99 1006.7 4.5 WSW 4.5 0.0 0.0
04:06 5.0 4.9 99 1006.9 3.8 WSW 4.5 0.0 0.0
04:07 5.0 4.9 99 1006.8 3.8 W 4.5 0.0 0.0
04:09 5.0 4.9 99 1006.9 3.1 W 4.5 0.0 0.0
04:10 4.9 4.8 99 1006.7 3.1 W 4.5 0.0 0.0
04:11 4.9 4.8 99 1006.8 4.5 W 4.5 0.0 0.0
04:12 4.9 4.8 99 1006.6 4.5 W 4.5 0.0 0.0
04:13 4.9 4.8 99 1006.8 3.8 W 4.5 0.0 0.0
04:15 4.9 4.8 99 1006.8 3.8 W 4.5 0.0 0.0
04:16 4.9 4.8 99 1006.8 3.8 W 4.5 0.0 0.0
04:17 4.9 4.8 99 1006.8 3.8 W 4.5 0.0 0.0
04:18 4.9 4.8 99 1006.9 3.1 W 4.5 0.0 0.0
04:19 4.9 4.8 99 1006.9 3.8 W 4.5 0.0 0.0
04:20 5.0 4.9 99 1006.8 3.1 W 4.5 0.0 0.0
04:21 5.0 4.9 99 1006.7 1.6 W 4.5 0.0 0.0
04:22 4.9 4.8 99 1006.7 3.8 W 4.5 0.0 0.0
04:24 4.9 4.8 99 1006.9 3.8 W 4.5 0.0 0.0
04:25 4.9 4.8 99 1006.8 3.1 W 4.5 0.0 0.0
04:26 4.9 4.8 99 1006.8 3.8 W 4.5 0.0 0.0
04:27 4.9 4.8 99 1006.8 3.8 W 4.5 0.0 0.0
04:28 4.9 4.8 99 1006.7 2.2 W 3.8 0.0 0.0
04:29 4.9 4.8 99 1006.8 3.8 W 3.8 0.0 0.0
04:30 5.0 4.9 99 1006.7 3.1 W 3.8 0.0 0.0
04:31 5.0 4.9 99 1006.8 4.5 NW 4.5 0.0 0.0
04:32 5.0 4.9 99 1006.9 3.8 W 4.5 0.0 0.0
04:33 5.0 4.9 99 1007.0 3.8 W 4.5 0.0 0.0
04:34 5.0 4.9 99 1006.8 4.5 WSW 4.5 0.0 0.0
04:35 5.0 4.9 99 1006.9 5.4 W 5.4 0.0 0.0
04:36 4.9 4.8 99 1006.9 4.5 W 5.4 0.0 0.0
04:38 4.9 4.8 99 1006.9 3.1 W 5.4 0.0 0.0
04:39 4.9 4.8 99 1007.0 3.8 W 5.4 0.0 0.0
04:40 5.0 4.9 99 1006.9 2.2 W 5.4 0.0 0.0
04:41 4.9 4.8 99 1007.0 4.5 W 5.4 0.0 0.0
04:42 5.0 4.9 99 1006.9 3.8 W 5.4 0.0 0.0
04:43 4.9 4.8 99 1007.1 2.2 W 5.4 0.0 0.0
04:44 4.9 4.8 99 1007.0 2.2 W 5.4 0.0 0.0
04:45 4.9 4.8 99 1007.2 3.8 W 5.4 0.0 0.0
04:46 4.9 4.8 99 1007.0 2.2 W 4.5 0.0 0.0
04:47 5.0 4.9 99 1007.0 3.1 W 4.5 0.0 0.0
04:48 4.9 4.8 99 1007.0 3.1 W 4.5 0.0 0.0
04:49 4.9 4.8 99 1007.1 2.2 W 4.5 0.0 0.0
04:50 4.9 4.8 99 1007.2 1.6 W 4.5 0.0 0.0
04:51 4.9 4.8 99 1007.2 1.6 W 3.8 0.0 0.0
04:52 5.0 4.9 99 1007.3 2.2 W 3.8 0.0 0.0
04:53 5.0 4.9 99 1007.2 2.2 W 3.8 0.0 0.0
04:54 5.0 4.9 99 1007.2 2.2 W 3.8 0.0 0.0
04:56 4.9 4.8 99 1007.2 3.1 W 3.1 0.0 0.0
04:57 4.9 4.8 99 1007.1 3.1 W 3.1 0.0 0.0
04:58 4.9 4.8 99 1007.2 2.2 W 3.1 0.0 0.0
04:59 4.9 4.8 99 1007.2 1.6 W 3.1 0.0 0.0
05:00 5.0 4.9 99 1007.2 2.2 W 3.1 0.0 0.0
05:01 5.0 4.9 99 1007.2 2.2 W 3.1 0.0 0.0
05:02 5.0 4.9 99 1007.3 2.2 W 3.1 0.0 0.0
05:03 5.0 4.9 99 1007.3 2.2 W 3.1 0.0 0.0
05:04 5.0 4.9 99 1007.2 2.2 W 3.1 0.0 0.0
05:05 5.0 4.9 99 1007.2 2.2 W 3.1 0.0 0.0
05:06 4.9 4.8 99 1007.1 4.5 W 4.5 0.0 0.0
05:07 4.9 4.8 99 1007.3 3.8 W 4.5 0.0 0.0
05:09 4.9 4.8 99 1007.3 2.2 W 4.5 0.0 0.0
05:10 4.9 4.8 99 1007.2 3.1 NW 4.5 0.0 0.0
05:11 4.8 4.7 99 1007.2 3.1 NW 4.5 0.0 0.0
05:12 4.9 4.8 99 1007.2 2.2 NW 4.5 0.0 0.0
05:13 4.9 4.8 99 1007.3 2.2 NW 4.5 0.0 0.0
05:14 4.9 4.8 99 1007.3 2.2 W 4.5 0.0 0.0
05:15 4.9 4.8 99 1007.2 1.6 W 4.5 0.0 0.0
05:16 4.9 4.8 99 1007.2 1.6 W 4.5 0.0 0.0
05:17 4.8 4.7 99 1007.1 2.2 W 3.8 0.0 0.0
05:18 4.8 4.7 99 1007.2 2.2 W 3.1 0.0 0.0
05:19 4.9 4.8 99 1007.3 2.2 W 3.1 0.0 0.0
05:20 4.8 4.7 99 1007.3 2.2 W 3.1 0.0 0.0
05:21 4.8 4.7 99 1007.3 2.2 W 3.1 0.0 0.0
05:22 4.8 4.7 99 1007.2 1.6 W 3.1 0.0 0.0
05:23 4.8 4.7 99 1007.3 2.2 W 2.2 0.0 0.0
05:24 4.8 4.7 99 1007.2 2.2 W 2.2 0.0 0.0
05:25 4.8 4.7 99 1007.2 1.6 W 2.2 0.0 0.0
05:26 4.8 4.7 99 1007.2 1.6 W 2.2 0.0 0.0
05:28 4.7 4.6 99 1007.4 1.6 W 2.2 0.0 0.0
05:29 4.7 4.6 99 1007.4 1.6 W 2.2 0.0 0.0
05:30 4.8 4.7 99 1007.4 1.6 W 2.2 0.0 0.0
05:31 4.7 4.6 99 1007.3 1.6 W 2.2 0.0 0.0
05:32 4.7 4.6 99 1007.4 1.6 W 2.2 0.0 0.0
05:33 4.7 4.6 99 1007.4 1.6 W 2.2 0.0 0.0
05:34 4.7 4.6 99 1007.4 1.6 W 2.2 0.0 0.0
05:35 4.7 4.6 99 1007.4 1.6 W 2.2 0.0 0.0
05:36 4.7 4.6 99 1007.5 1.6 W 2.2 0.0 0.0
05:37 4.7 4.6 99 1007.4 1.6 W 1.6 0.0 0.0
05:38 4.7 4.6 99 1007.5 1.6 W 1.6 0.0 0.0
05:39 4.7 4.6 99 1007.4 1.6 W 1.6 0.0 0.0
05:40 4.7 4.6 99 1007.4 2.2 W 2.2 0.0 0.0
05:41 4.7 4.6 99 1007.4 1.6 W 2.2 0.0 0.0
05:42 4.7 4.6 99 1007.5 0.7 W 2.2 0.0 0.0
05:43 4.6 4.5 99 1007.5 0.7 W 2.2 0.0 0.0
05:45 4.6 4.5 99 1007.6 1.6 W 2.2 0.0 0.0
05:46 4.6 4.5 99 1007.5 0.7 W 2.2 0.0 0.0
05:47 4.6 4.5 99 1007.5 0.7 W 2.2 0.0 0.0
05:48 4.6 4.5 99 1007.6 1.6 W 2.2 0.0 0.0
05:49 4.6 4.5 99 1007.7 0.7 W 2.2 0.0 0.0
05:50 4.5 4.4 99 1007.6 0.7 W 2.2 0.0 0.0
05:51 4.5 4.4 99 1007.6 0.0 W 1.6 0.0 0.0
05:52 4.5 4.4 99 1007.5 0.0 W 1.6 0.0 0.0
05:53 4.5 4.4 99 1007.7 0.0 W 1.6 0.0 0.0
05:54 4.4 4.3 99 1007.7 0.7 W 1.6 0.0 0.0
05:55 4.4 4.3 99 1007.5 0.7 W 1.6 0.0 0.0
05:56 4.4 4.3 99 1007.6 0.7 W 1.6 0.0 0.0
05:57 4.4 4.3 99 1007.7 0.7 W 1.6 0.0 0.0
05:58 4.3 4.2 99 1007.5 0.0 W 0.7 0.0 0.0
05:59 4.3 4.2 99 1007.7 0.0 W 0.7 0.0 0.0
06:00 4.3 4.2 99 1007.6 0.0 W 0.7 0.0 0.0
06:01 4.3 4.2 99 1007.7 0.0 W 0.7 0.0 0.0
06:02 4.3 4.2 99 1007.6 0.0 W 0.7 0.0 0.0
06:04 4.3 4.2 99 1007.7 0.0 W 0.7 0.0 0.0
06:05 4.3 4.2 99 1007.7 0.0 W 0.7 0.0 0.0
06:06 4.3 4.2 99 1007.7 0.0 W 0.7 0.0 0.0
06:07 4.2 4.1 99 1007.6 0.0 W 0.0 0.0 0.0
06:09 4.1 4.0 99 1007.7 0.0 W 0.7 0.0 0.0
06:11 4.1 4.0 99 1007.6 0.0 W 0.7 0.0 0.0
06:12 4.1 4.0 99 1007.7 0.0 W 0.7 0.0 0.0
06:14 4.0 3.9 99 1007.7 0.0 W 0.7 0.0 0.0
06:15 4.0 3.9 99 1007.7 0.7 W 0.7 0.0 0.0
06:16 4.0 3.9 99 1007.7 0.0 W 0.7 0.0 0.0
06:17 4.0 3.9 99 1007.7 0.0 W 0.7 0.0 0.0
06:18 3.9 3.8 99 1007.6 0.0 W 0.7 0.0 0.0
06:19 3.9 3.8 99 1007.7 0.0 W 0.7 0.0 0.0
06:20 3.9 3.8 99 1007.7 0.0 W 0.7 0.0 0.0
06:21 3.9 3.8 99 1007.7 0.0 W 0.7 0.0 0.0
06:22 3.8 3.7 99 1007.7 0.0 W 0.7 0.0 0.0
06:23 3.8 3.7 99 1007.8 0.7 W 0.7 0.0 0.0
06:24 3.7 3.6 99 1007.7 0.0 W 0.7 0.0 0.0
06:25 3.7 3.6 99 1007.9 0.0 W 0.7 0.0 0.0
06:26 3.7 3.6 99 1007.8 0.0 W 0.7 0.0 0.0
06:27 3.7 3.6 99 1007.9 0.7 W 0.7 0.0 0.0
06:28 3.6 3.5 99 1008.0 0.0 W 0.7 0.0 0.0
06:29 3.6 3.5 99 1007.8 0.7 W 0.7 0.0 0.0
06:30 3.6 3.5 99 1008.0 0.0 W 0.7 0.0 0.0
06:31 3.7 3.6 99 1007.9 0.0 W 0.7 0.0 0.0
06:32 3.6 3.5 99 1007.9 0.7 W 0.7 0.0 0.0
06:33 3.5 3.4 99 1008.1 0.7 W 0.7 0.0 0.0
06:34 3.5 3.4 99 1008.0 0.7 W 0.7 0.0 0.0
06:35 3.5 3.4 99 1007.9 1.6 W 1.6 0.0 0.0
06:36 3.4 3.3 99 1007.9 0.7 W 1.6 0.0 0.0
06:37 3.4 3.3 99 1008.0 0.7 W 1.6 0.0 0.0
06:38 3.4 3.3 99 1008.0 0.7 W 1.6 0.0 0.0
06:39 3.4 3.3 99 1008.0 0.7 W 1.6 0.0 0.0
06:40 3.4 3.3 99 1007.8 0.0 W 1.6 0.0 0.0
06:41 3.4 3.3 99 1007.8 0.0 W 1.6 0.0 0.0
06:42 3.3 3.2 99 1008.0 0.0 W 1.6 0.0 0.0
06:43 3.3 3.2 99 1007.9 0.0 W 1.6 0.0 0.0
06:44 3.3 3.2 99 1007.9 0.0 W 1.6 0.0 0.0
06:45 3.3 3.2 99 1008.1 0.0 W 1.6 0.0 0.0
06:46 3.3 3.2 99 1007.9 0.0 W 0.7 0.0 0.0
06:47 3.3 3.2 99 1008.0 0.0 W 0.7 0.0 0.0
06:48 3.3 3.2 99 1008.0 0.0 W 0.7 0.0 0.0
06:49 3.3 3.2 99 1008.1 0.0 W 0.7 0.0 0.0
06:50 3.2 3.1 99 1008.1 0.0 W 0.0 0.0 0.0
06:51 3.2 3.1 99 1008.2 0.0 W 0.0 0.0 0.0
06:52 3.2 3.1 99 1008.0 0.7 W 0.7 0.0 0.0
06:53 3.2 3.1 99 1008.1 0.7 W 0.7 0.0 0.0
06:54 3.2 3.1 99 1008.1 0.7 W 0.7 0.0 0.0
06:55 3.2 3.1 99 1008.0 0.0 W 0.7 0.0 0.0
06:56 3.2 3.1 99 1008.1 0.0 W 0.7 0.0 0.0
06:57 3.2 3.1 99 1008.2 0.0 W 0.7 0.0 0.0
06:58 3.2 3.1 99 1008.2 0.7 W 0.7 0.0 0.0
06:59 3.1 3.0 99 1008.2 0.7 W 0.7 0.0 0.0
07:00 3.1 3.0 99 1008.2 0.7 W 0.7 0.0 0.0
07:01 3.1 3.0 99 1008.4 0.7 W 0.7 0.0 0.0
07:02 3.1 3.0 99 1008.2 0.7 W 0.7 0.0 0.0
07:03 3.1 3.0 99 1008.2 0.7 W 0.7 0.0 0.0
07:04 3.1 3.0 99 1008.2 0.7 W 0.7 0.0 0.0
07:05 3.1 3.0 99 1008.2 0.7 W 0.7 0.0 0.0
07:06 3.1 3.0 99 1008.2 0.7 W 0.7 0.0 0.0
07:07 3.1 3.0 99 1008.2 0.7 W 0.7 0.0 0.0
07:08 3.1 3.0 99 1008.2 0.7 W 0.7 0.0 0.0
07:09 3.1 3.0 99 1008.2 0.7 W 0.7 0.0 0.0
07:10 3.1 3.0 99 1008.2 0.7 W 0.7 0.0 0.0
07:11 3.1 3.0 99 1008.3 0.7 W 0.7 0.0 0.0
07:12 3.1 3.0 99 1008.4 0.0 W 0.7 0.0 0.0
07:13 3.1 3.0 99 1008.2 0.0 W 0.7 0.0 0.0
07:14 3.1 3.0 99 1008.3 0.0 W 0.7 0.0 0.0
07:16 3.1 3.0 99 1008.2 1.6 W 1.6 0.0 0.0
07:17 3.0 2.9 99 1008.4 2.2 W 2.2 0.0 0.0
07:18 3.0 2.9 99 1008.4 2.2 W 2.2 0.0 0.0
07:19 3.0 2.9 99 1008.3 2.2 W 2.2 0.0 0.0
07:20 3.1 3.0 99 1008.5 1.6 W 2.2 0.0 0.0
07:21 3.0 2.9 99 1008.5 1.6 W 2.2 0.0 0.0
07:22 3.0 2.9 99 1008.6 1.6 W 2.2 0.0 0.0
07:23 3.1 3.0 99 1008.6 0.7 W 2.2 0.0 0.0
07:24 3.0 2.9 99 1008.3 0.7 W 2.2 0.0 0.0
07:25 3.0 2.9 99 1008.4 0.7 W 2.2 0.0 0.0
07:27 3.1 3.0 99 1008.4 0.0 W 2.2 0.0 0.0
07:28 3.0 2.9 99 1008.4 0.7 W 2.2 0.0 0.0
07:29 3.1 3.0 99 1008.5 1.6 W 1.6 0.0 0.0
07:30 3.1 3.0 99 1008.5 0.0 W 1.6 0.0 0.0
07:31 3.2 3.1 99 1008.4 0.0 W 1.6 0.0 0.0
07:32 3.1 3.0 99 1008.5 0.0 W 1.6 0.0 0.0
07:33 3.1 3.0 99 1008.3 0.0 W 1.6 0.0 0.0
07:34 3.1 3.0 99 1008.4 0.7 W 1.6 0.0 0.0
07:36 3.2 3.1 99 1008.4 0.7 W 1.6 0.0 0.0
07:37 3.2 3.1 99 1008.4 0.7 W 1.6 0.0 0.0
07:38 3.2 3.1 99 1008.3 0.7 W 1.6 0.0 0.0
07:39 3.2 3.1 99 1008.4 0.0 W 1.6 0.0 0.0
07:40 3.3 3.2 99 1008.3 0.0 W 1.6 0.0 0.0
07:41 3.3 3.2 99 1008.5 0.0 W 1.6 0.0 0.0
07:42 3.3 3.2 99 1008.5 0.0 W 1.6 0.0 0.0
07:43 3.4 3.3 99 1008.5 0.0 W 1.6 0.0 0.0
07:44 3.4 3.3 99 1008.5 1.6 W 1.6 0.0 0.0
07:46 3.4 3.3 99 1008.4 0.7 W 1.6 0.0 0.0
07:47 3.4 3.3 99 1008.5 0.0 W 1.6 0.0 0.0
07:48 3.4 3.3 99 1008.5 0.0 W 1.6 0.0 0.0
07:49 3.5 3.4 99 1008.5 0.0 W 1.6 0.0 0.0
07:50 3.5 3.4 99 1008.5 0.7 W 1.6 0.0 0.0
07:51 3.5 3.4 99 1008.6 0.7 W 1.6 0.0 0.0
07:52 3.5 3.4 99 1008.6 0.7 W 1.6 0.0 0.0
07:53 3.6 3.5 99 1008.5 0.7 W 1.6 0.0 0.0
07:54 3.6 3.5 99 1008.7 1.6 W 1.6 0.0 0.0
07:55 3.6 3.5 99 1008.6 0.7 W 1.6 0.0 0.0
07:56 3.6 3.5 99 1008.7 0.7 W 1.6 0.0 0.0
07:57 3.6 3.5 99 1008.7 0.0 W 1.6 0.0 0.0
07:58 3.7 3.6 99 1008.6 0.0 W 1.6 0.0 0.0
07:59 3.7 3.6 99 1008.7 0.0 W 1.6 0.0 0.0
08:00 3.7 3.6 99 1008.6 0.0 W 1.6 0.0 0.0
08:01 3.7 3.6 99 1008.6 0.0 W 1.6 0.0 0.0
08:03 3.7 3.6 99 1008.5 0.0 W 1.6 0.0 0.0
08:04 3.7 3.6 99 1008.5 0.0 W 1.6 0.0 0.0
08:05 3.7 3.6 99 1008.5 0.0 W 1.6 0.0 0.0
08:06 3.7 3.6 99 1008.5 0.0 W 0.7 0.0 0.0
08:07 3.7 3.6 99 1008.5 0.0 W 0.7 0.0 0.0
08:08 3.8 3.7 99 1008.6 0.7 W 0.7 0.0 0.0
08:09 3.9 3.8 99 1008.5 0.7 W 0.7 0.0 0.0
08:10 4.0 3.9 99 1008.7 0.0 W 0.7 0.0 0.0
08:12 4.0 3.9 99 1008.6 0.7 W 0.7 0.0 0.0
08:13 4.1 4.0 99 1008.7 0.0 W 0.7 0.0 0.0
08:15 4.2 4.1 99 1008.5 0.7 W 0.7 0.0 0.0
08:16 4.2 4.1 99 1008.7 1.6 W 1.6 0.0 0.0
08:17 4.2 4.1 99 1008.7 0.7 W 1.6 0.0 0.0
08:18 4.3 4.2 99 1008.7 1.6 W 1.6 0.0 0.0
08:19 4.3 4.2 99 1008.6 1.6 W 1.6 0.0 0.0
08:20 4.4 4.3 99 1008.7 1.6 W 1.6 0.0 0.0
08:21 4.4 4.3 99 1008.6 1.6 W 1.6 0.0 0.0
08:22 4.4 4.3 99 1008.7 2.2 W 2.2 0.0 0.0
08:23 4.5 4.4 99 1008.7 2.2 N 2.2 0.0 0.0
08:24 4.5 4.4 99 1008.5 3.1 N 3.1 0.0 0.0
08:25 4.6 4.5 99 1008.8 3.1 N 3.1 0.0 0.0
08:26 4.6 4.5 99 1008.6 3.1 N 3.1 0.0 0.0
08:27 4.7 4.6 99 1008.7 2.2 N 3.1 0.0 0.0
08:28 4.7 4.6 99 1008.6 2.2 SE 3.1 0.0 0.0
08:30 4.8 4.7 99 1008.7 2.2 SE 3.1 0.0 0.0
08:31 4.8 4.7 99 1008.6 3.1 SE 3.1 0.0 0.0
08:32 4.8 4.7 99 1008.7 3.1 SE 3.1 0.0 0.0
08:33 4.9 4.8 99 1008.6 2.2 SE 3.1 0.0 0.0
08:34 5.0 4.9 99 1008.7 1.6 SE 3.1 0.0 0.0
08:35 5.0 4.9 99 1008.7 1.6 SE 3.1 0.0 0.0
08:36 5.0 4.9 99 1008.7 1.6 SE 3.1 0.0 0.0
08:37 5.0 4.9 99 1008.7 1.6 SE 3.1 0.0 0.0
08:38 5.1 5.0 99 1008.8 1.6 SE 3.1 0.0 0.0
08:39 5.1 5.0 99 1008.7 2.2 SE 3.1 0.0 0.0
08:40 5.2 5.1 99 1008.8 2.2 SE 3.1 0.0 0.0
08:41 5.2 5.1 99 1008.7 3.8 SE 3.8 0.0 0.0
08:42 5.2 5.1 99 1008.7 4.5 N 4.5 0.0 0.0
08:43 5.3 5.2 99 1008.9 3.8 N 4.5 0.0 0.0
08:44 5.3 5.2 99 1008.9 3.1 N 4.5 0.0 0.0
08:45 5.3 5.2 99 1008.9 3.1 N 4.5 0.0 0.0
08:46 5.4 5.3 99 1008.9 3.1 N 4.5 0.0 0.0
08:47 5.4 5.3 99 1008.8 3.8 N 4.5 0.0 0.0
08:48 5.5 5.4 99 1009.0 3.8 N 4.5 0.0 0.0
08:49 5.5 5.4 99 1008.9 3.1 N 4.5 0.0 0.0
08:50 5.6 5.5 99 1008.9 4.5 N 4.5 0.0 0.0
08:51 5.6 5.5 99 1008.9 3.8 N 4.5 0.0 0.0
08:53 5.7 5.6 99 1009.0 3.8 N 4.5 0.0 0.0
08:54 5.7 5.6 99 1009.0 3.1 N 4.5 0.0 0.0
08:55 5.8 5.7 99 1008.8 3.8 N 4.5 0.0 0.0
08:56 5.9 5.8 99 1009.0 4.5 NW 4.5 0.0 0.0
08:57 5.9 5.8 99 1008.8 3.8 S 4.5 0.0 0.0
08:58 5.9 5.8 99 1008.8 3.8 S 4.5 0.0 0.0
08:59 6.0 5.9 99 1008.7 4.5 S 4.5 0.0 0.0
09:00 6.0 5.9 99 1009.0 4.5 S 4.5 0.0 0.0
09:01 6.0 5.9 99 1008.9 4.5 S 4.5 0.0 0.0
09:02 6.0 5.9 99 1009.0 4.5 S 4.5 0.0 0.0
09:04 6.0 5.9 99 1009.0 4.5 S 4.5 0.0 0.0
09:05 6.0 5.9 99 1008.9 4.5 S 4.5 0.0 0.0
09:06 6.3 6.2 99 1009.0 3.8 WSW 4.5 0.0 0.0
09:07 6.3 6.2 99 1008.9 5.4 WSW 5.4 0.0 0.0
09:08 6.3 6.2 99 1008.9 4.5 S 5.4 0.0 0.0
09:09 6.4 6.3 99 1009.1 5.4 S 5.4 0.0 0.0
09:10 6.5 6.4 99 1009.1 6.9 S 6.9 0.0 0.0
09:11 6.5 6.4 99 1009.1 6.0 S 6.9 0.0 0.0
09:12 6.5 6.4 99 1009.0 5.4 S 6.9 0.0 0.0
09:13 6.6 6.5 99 1008.9 4.5 WSW 6.9 0.0 0.0
09:14 6.7 6.6 99 1009.0 5.4 WSW 6.9 0.0 0.0
09:15 6.7 6.6 99 1009.0 6.0 WSW 6.9 0.0 0.0
09:16 6.8 6.7 99 1009.0 6.9 S 6.9 0.0 0.0
09:17 6.8 6.7 99 1009.2 6.9 S 6.9 0.0 0.0
09:18 6.8 6.7 99 1009.1 6.9 NW 6.9 0.0 0.0
09:19 6.9 6.8 99 1009.2 6.0 S 6.9 0.0 0.0
09:20 6.9 6.8 99 1009.1 6.9 S 6.9 0.0 0.0
09:21 7.0 6.9 99 1009.2 7.6 S 7.6 0.0 0.0
09:22 7.0 6.9 99 1009.2 6.9 S 7.6 0.0 0.0
09:23 7.1 7.0 99 1009.0 6.9 S 7.6 0.0 0.0
09:24 7.0 6.9 99 1009.2 6.0 S 7.6 0.0 0.0
09:25 7.1 7.0 99 1009.2 8.3 S 8.3 0.0 0.0
09:27 7.1 7.0 99 1009.2 5.4 S 8.3 0.0 0.0
09:28 7.2 7.1 99 1009.1 6.9 WSW 8.3 0.0 0.0
09:29 7.2 7.1 99 1009.2 8.3 S 9.2 0.0 0.0
09:30 7.2 7.1 99 1009.0 7.6 S 9.2 0.0 0.0
09:31 7.2 7.1 99 1009.0 5.4 S 9.2 0.0 0.0
09:32 7.3 7.2 99 1009.2 7.6 S 9.2 0.0 0.0
09:33 7.1 7.0 99 1009.2 6.0 S 9.2 0.0 0.0
09:34 7.3 7.2 99 1009.2 6.0 S 9.2 0.0 0.0
09:35 7.2 7.1 99 1009.2 6.0 SW 9.2 0.0 0.0
09:36 7.3 7.2 99 1009.1 7.6 W 9.2 0.0 0.0
09:37 7.3 7.2 99 1009.1 5.4 S 9.2 0.0 0.0
09:38 7.3 7.2 99 1009.2 5.4 S 9.2 0.0 0.0
09:39 7.3 7.2 99 1009.2 7.6 N 7.6 0.0 0.0
09:40 7.3 7.2 99 1009.1 6.0 WSW 7.6 0.0 0.0
09:41 7.3 7.2 99 1009.3 6.0 WSW 7.6 0.0 0.0
09:43 7.3 7.2 99 1009.2 13.0 WSW 13.0 0.0 0.0
09:45 7.3 7.2 99 1009.4 6.9 S 13.0 0.0 0.0
09:46 7.3 7.2 99 1009.4 6.9 S 13.0 0.0 0.0
09:47 7.3 7.2 99 1009.4 7.6 S 13.0 0.0 0.0
09:48 7.3 7.2 99 1009.4 9.2 WNW 13.0 0.0 0.0
09:49 7.4 7.3 99 1009.4 7.6 S 13.0 0.0 0.0
09:50 7.5 7.4 99 1009.4 8.3 N 13.0 0.0 0.0
09:51 7.5 7.4 99 1009.4 8.3 S 13.0 0.0 0.0
09:52 7.6 7.5 99 1009.5 9.8 S 13.0 0.0 0.0
09:53 7.6 7.5 99 1009.4 10.7 S 12.1 0.0 0.0
09:54 7.7 7.6 99 1009.6 7.6 SW 10.7 0.0 0.0
09:55 7.8 7.7 99 1009.5 6.0 S 10.7 0.0 0.0
09:56 7.9 7.8 99 1009.5 9.8 S 10.7 0.0 0.0
09:57 8.0 7.9 99 1009.5 11.4 SW 11.4 0.0 0.0
09:58 8.1 8.0 99 1009.5 9.2 SW 11.4 0.0 0.0
09:59 8.1 8.0 99 1009.4 10.7 SW 11.4 0.0 0.0
10:00 8.1 8.0 99 1009.4 10.7 SW 11.4 0.0 0.0
10:01 8.1 8.0 99 1009.5 10.7 SW 11.4 0.0 0.0
10:02 8.1 8.0 99 1009.4 10.7 SW 11.4 0.0 0.0
10:03 8.1 8.0 99 1009.4 10.7 SW 11.4 0.0 0.0
10:04 8.1 8.0 99 1009.5 10.7 SW 11.4 0.0 0.0
10:06 8.3 8.2 99 1009.6 8.3 S 11.4 0.0 0.0
10:07 8.2 8.1 99 1009.4 8.3 SE 11.4 0.0 0.0
10:08 8.2 8.1 99 1009.4 7.6 S 10.7 0.0 0.0
10:09 8.2 8.1 99 1009.5 7.6 S 10.7 0.0 0.0
10:10 8.2 8.1 99 1009.4 6.9 S 10.7 0.0 0.0
10:12 8.2 8.1 99 1009.5 6.9 S 10.7 0.0 0.0
10:13 8.2 8.1 99 1009.6 9.2 SE 10.7 0.0 0.0
10:14 8.2 8.1 99 1009.5 8.3 S 10.7 0.0 0.0
10:16 8.2 7.9 98 1009.5 7.6 S 9.2 0.0 0.0
10:17 8.3 8.0 98 1009.7 7.6 SW 9.2 0.0 0.0
10:18 8.3 8.0 98 1009.6 6.0 S 9.2 0.0 0.0
10:19 8.4 8.1 98 1009.6 6.0 S 9.2 0.0 0.0
10:20 8.4 8.1 98 1009.5 6.9 SW 9.2 0.0 0.0
10:21 8.5 8.2 98 1009.5 5.4 S 9.2 0.0 0.0
10:22 8.4 8.1 98 1009.5 6.9 S 9.2 0.0 0.0
10:23 8.5 8.2 98 1009.6 5.4 SW 9.2 0.0 0.0
10:24 8.5 8.2 98 1009.6 6.0 S 9.2 0.0 0.0
10:25 8.6 8.2 97 1009.6 5.4 SE 9.2 0.0 0.0
10:27 8.6 8.2 97 1009.6 9.2 SW 9.2 0.0 0.0
10:28 8.6 8.2 97 1009.7 6.9 S 9.2 0.0 0.0
10:29 8.6 8.2 97 1009.7 8.3 NW 9.2 0.0 0.0
10:30 8.7 8.3 97 1009.7 9.2 SE 9.2 0.0 0.0
10:31 8.7 8.1 96 1009.7 7.6 S 9.2 0.0 0.0
10:32 8.7 8.1 96 1009.5 6.9 S 9.2 0.0 0.0
10:33 8.7 8.1 96 1009.5 6.9 S 9.2 0.0 0.0
10:34 8.7 8.1 96 1009.6 7.6 SW 9.2 0.0 0.0
10:35 8.7 8.1 96 1009.7 9.2 S 9.2 0.0 0.0
10:36 8.7 8.1 96 1009.6 9.8 S 9.8 0.0 0.0
10:37 8.7 8.1 96 1009.5 7.6 W 9.8 0.0 0.0
10:38 8.7 7.9 95 1009.5 7.6 S 9.8 0.0 0.0
10:39 8.6 7.8 95 1009.6 6.9 S 9.8 0.0 0.0
10:41 8.6 7.8 95 1009.6 9.2 SE 9.8 0.0 0.0
10:42 8.6 7.7 94 1009.6 6.0 SE 9.8 0.0 0.0
10:43 8.5 7.6 94 1009.5 7.6 S 9.8 0.0 0.0
10:44 8.5 7.6 94 1009.5 9.8 S 9.8 0.0 0.0
10:45 8.6 7.7 94 1009.7 9.2 SW 9.8 0.0 0.0
10:46 8.6 7.5 93 1009.6 6.9 SW 9.8 0.0 0.0
10:47 8.6 7.5 93 1009.7 8.3 N 9.8 0.0 0.0
10:48 8.6 7.4 92 1009.7 7.6 S 9.8 0.0 0.0
10:49 8.7 7.6 93 1009.6 6.9 SW 9.8 0.0 0.0
10:50 8.7 7.5 92 1009.7 7.6 S 9.8 0.0 0.0
10:51 8.8 7.4 91 1009.6 6.0 S 9.8 0.0 0.0
10:52 8.9 7.5 91 1009.6 8.3 W 9.8 0.0 0.0
10:53 9.0 7.6 91 1009.6 7.6 S 9.8 0.0 0.0
10:54 9.1 7.7 91 1009.6 11.4 S 11.4 0.0 0.0
10:55 9.1 7.5 90 1009.7 9.2 SE 11.4 0.0 0.0
10:56 9.1 7.5 90 1009.6 9.2 WNW 11.4 0.0 0.0
10:57 9.1 7.5 90 1009.7 9.2 W 11.4 0.0 0.0
10:58 9.1 7.5 90 1009.6 6.0 WNW 11.4 0.0 0.0
10:59 9.0 7.3 89 1009.6 6.9 S 11.4 0.0 0.0
11:00 9.0 7.3 89 1009.6 6.9 S 11.4 0.0 0.0
11:01 9.0 7.3 89 1009.5 6.9 S 11.4 0.0 0.0
11:02 9.1 7.4 89 1009.7 8.3 W 11.4 0.0 0.0
11:04 9.2 7.5 89 1009.7 5.4 S 11.4 0.0 0.0
11:05 9.2 7.5 89 1009.7 9.2 SW 9.2 0.0 0.0
11:06 9.3 7.4 88 1009.7 6.0 SE 9.2 0.0 0.0
11:07 9.3 7.6 89 1009.6 9.2 SW 9.2 0.0 0.0
11:08 9.3 7.6 89 1009.7 9.8 NW 9.8 0.0 0.0
11:09 9.4 7.7 89 1009.9 9.8 SW 9.8 0.0 0.0
11:10 9.4 7.5 88 1009.7 9.8 NNW 9.8 0.0 0.0
11:12 9.4 7.5 88 1009.8 8.3 SW 9.8 0.0 0.0
11:13 9.4 7.5 88 1009.7 9.8 S 9.8 0.0 0.0
11:14 9.5 7.6 88 1009.8 7.6 SW 9.8 0.0 0.0
11:15 9.5 7.6 88 1009.7 7.6 S 9.8 0.0 0.0
11:16 9.6 7.7 88 1009.7 8.3 S 9.8 0.0 0.0
11:18 9.8 8.1 89 1009.7 9.2 S 9.8 0.0 0.0
11:19 10.0 8.1 88 1009.7 9.8 S 9.8 0.0 0.0
11:20 10.1 8.0 87 1009.8 8.3 WNW 9.8 0.0 0.0
11:21 10.1 8.0 87 1009.8 8.3 S 9.8 0.0 0.0
11:22 10.2 8.1 87 1009.9 6.0 SE 9.8 0.0 0.0
11:23 10.3 8.4 88 1009.7 9.2 S 9.8 0.0 0.0
11:24 10.4 8.5 88 1009.9 10.7 S 10.7 0.0 0.0
11:25 10.4 8.3 87 1009.8 10.7 S 10.7 0.0 0.0
11:26 10.4 8.3 87 1009.8 9.2 SE 10.7 0.0 0.0
11:27 10.4 8.2 86 1009.7 9.2 SE 10.7 0.0 0.0
11:28 10.4 8.0 85 1009.8 9.8 NNW 10.7 0.0 0.0
11:29 10.4 8.0 85 1009.8 12.1 NNW 12.1 0.0 0.0
11:30 10.4 8.0 85 1009.7 9.8 SW 12.1 0.0 0.0
11:31 10.4 8.0 85 1009.7 8.3 S 12.1 0.0 0.0
11:32 10.5 8.1 85 1009.7 9.8 SW 12.1 0.0 0.0
11:33 10.5 8.1 85 1009.8 8.3 SW 12.1 0.0 0.0
11:34 10.6 8.4 86 1009.8 13.0 S 13.0 0.0 0.0
11:35 10.6 8.2 85 1009.8 9.2 SE 13.0 0.0 0.0
11:36 10.5 7.9 84 1009.9 8.3 S 13.0 0.0 0.0
11:37 10.5 7.7 83 1009.8 12.1 SE 13.0 0.0 0.0
11:38 10.5 7.6 82 1009.9 13.0 S 13.0 0.0 0.0
11:39 10.4 7.5 82 1009.8 9.8 S 13.0 0.0 0.0
11:40 10.4 7.5 82 1009.9 9.8 W 13.0 0.0 0.0
11:42 10.3 7.4 82 1009.9 11.4 SW 13.0 0.0 0.0
11:43 10.3 7.2 81 1010.0 11.4 SW 13.0 0.0 0.0
11:44 10.3 7.4 82 1009.9 9.8 S 13.0 0.0 0.0
11:45 10.3 7.4 82 1009.9 11.4 S 13.0 0.0 0.0
11:46 10.4 7.5 82 1009.7 9.8 S 13.0 0.0 0.0
11:47 10.4 7.5 82 1009.9 13.0 S 13.0 0.0 0.0
11:48 10.4 7.3 81 1009.8 11.4 S 13.0 0.0 0.0
11:49 10.5 7.4 81 1009.8 8.3 S 13.0 0.0 0.0
11:50 10.5 7.4 81 1010.0 17.4 S 17.4 0.0 0.0
11:51 10.6 7.3 80 1009.8 12.1 S 17.4 0.0 0.0
11:52 10.6 7.3 80 1010.0 15.9 S 17.4 0.0 0.0
11:53 10.6 7.1 79 1009.8 13.0 S 17.4 0.0 0.0
11:54 10.5 7.0 79 1009.9 10.7 S 17.4 0.0 0.0
11:55 10.6 7.1 79 1009.9 11.4 S 17.4 0.0 0.0
11:56 10.6 7.3 80 1009.7 12.1 S 17.4 0.0 0.0
11:57 10.6 7.1 79 1009.7 13.6 S 17.4 0.0 0.0
11:58 10.6 7.1 79 1009.8 11.4 NW 17.4 0.0 0.0
11:59 10.6 7.1 79 1009.9 11.4 SE 17.4 0.0 0.0
12:00 10.6 7.1 79 1009.8 11.4 SE 15.9 0.0 0.0
12:01 10.5 6.8 78 1009.9 11.4 S 15.9 0.0 0.0
12:02 10.5 7.0 79 1009.8 10.7 S 15.2 0.0 0.0
12:04 10.4 6.9 79 1009.9 10.7 S 15.2 0.0 0.0
12:05 10.4 6.9 79 1009.8 14.5 S 14.5 0.0 0.0
12:06 10.3 6.8 79 1009.9 12.1 SE 14.5 0.0 0.0
12:07 10.3 6.8 79 1009.9 15.2 S 15.2 0.0 0.0
12:08 10.4 7.1 80 1009.8 11.4 S 15.2 0.0 0.0
12:09 10.3 6.8 79 1009.9 9.8 SW 15.2 0.0 0.0
12:10 10.3 7.0 80 1009.8 13.6 SW 15.2 0.0 0.0
12:12 10.3 7.2 81 1009.9 9.8 W 15.2 0.0 0.0
12:14 10.4 7.3 81 1009.8 9.8 SW 15.2 0.0 0.0
12:15 10.5 7.4 81 1009.7 9.8 S 15.2 0.0 0.0
12:17 10.5 7.4 81 1009.7 15.9 S 15.9 0.0 0.0
12:18 10.6 7.5 81 1009.8 10.7 S 15.9 0.0 0.0
12:19 10.6 7.5 81 1009.7 11.4 N 15.9 0.0 0.0
12:20 10.5 7.4 81 1009.7 10.7 S 15.9 0.0 0.0
12:21 10.5 7.4 81 1009.6 12.1 S 15.9 0.0 0.0
12:22 10.5 7.4 81 1009.7 9.2 S 15.9 0.0 0.0
12:23 10.4 7.3 81 1009.7 12.1 S 15.9 0.0 0.0
12:24 10.3 7.0 80 1009.5 9.2 SW 15.9 0.0 0.0
12:25 10.1 6.8 80 1009.5 9.2 S 15.9 0.0 0.0
12:26 10.1 7.0 81 1009.6 10.7 S 15.9 0.0 0.0
12:27 10.1 7.0 81 1009.5 8.3 N 12.1 0.0 0.0
12:28 10.0 6.9 81 1009.6 10.7 W 12.1 0.0 0.0
12:29 10.1 7.2 82 1009.6 10.7 S 12.1 0.0 0.0
12:30 10.1 7.2 82 1009.6 13.0 S 13.0 0.0 0.0
12:31 10.1 7.2 82 1009.7 11.4 WNW 13.0 0.0 0.0
12:32 10.1 7.2 82 1009.5 9.8 S 13.0 0.0 0.0
12:33 10.2 7.4 83 1009.6 11.4 S 13.0 0.0 0.0
12:34 10.3 7.5 83 1009.6 13.0 S 13.0 0.0 0.0
12:35 10.4 7.6 83 1009.6 9.8 SE 13.0 0.0 0.0
12:36 10.5 7.7 83 1009.6 14.5 SE 14.5 0.0 0.0
12:38 10.6 7.7 82 1009.7 11.4 S 14.5 0.0 0.0
12:39 10.6 7.7 82 1009.6 13.0 SW 14.5 0.0 0.0
12:40 10.6 7.7 82 1009.6 10.7 S 14.5 0.0 0.0
12:41 10.6 7.7 82 1009.7 11.4 S 14.5 0.0 0.0
12:43 10.6 7.5 81 1009.6 10.7 SW 14.5 0.0 0.0
12:44 10.6 7.5 81 1009.5 9.8 S 14.5 0.0 0.0
12:45 10.4 7.1 80 1009.5 11.4 SE 14.5 0.0 0.0
12:46 10.4 7.1 80 1009.5 11.4 S 13.6 0.0 0.0
12:47 10.3 7.0 80 1009.5 11.4 S 13.6 0.0 0.0
12:48 10.3 7.0 80 1009.5 11.4 S 13.6 0.0 0.0
12:49 10.2 6.9 80 1009.6 12.1 S 13.6 0.0 0.0
12:50 10.1 6.8 80 1009.5 11.4 S 13.6 0.0 0.0
12:51 10.1 6.8 80 1009.6 8.3 S 13.6 0.0 0.0
12:52 10.0 6.7 80 1009.3 13.0 SW 13.0 0.0 0.0
12:53 10.0 6.7 80 1009.5 9.8 SW 13.0 0.0 0.0
12:54 10.0 6.7 80 1009.4 9.8 S 13.0 0.0 0.0
12:55 10.0 6.7 80 1009.5 10.7 SE 13.0 0.0 0.0
12:56 10.0 6.7 80 1009.3 12.1 S 13.0 0.0 0.0
12:57 10.0 6.9 81 1009.3 9.8 SE 13.0 0.0 0.0
12:59 10.1 7.2 82 1009.3 10.7 S 13.0 0.0 0.0
13:00 10.2 7.3 82 1009.3 10.7 S 13.0 0.0 0.0
13:01 10.2 7.3 82 1009.4 10.7 S 13.0 0.0 0.0
13:02 10.5 7.6 82 1009.4 13.0 S 13.0 0.0 0.0
13:03 10.6 7.7 82 1009.4 16.8 S 16.8 0.0 0.0
13:04 10.7 7.6 81 1009.3 10.7 S 16.8 0.0 0.0
13:05 10.8 7.7 81 1009.2 11.4 S 16.8 0.0 0.0
13:06 10.9 8.0 82 1009.4 11.4 S 16.8 0.0 0.0
13:07 11.0 8.0 82 1009.4 15.9 W 16.8 0.0 0.0
13:08 11.1 8.1 82 1009.4 15.9 W 16.8 0.0 0.0
13:09 11.0 7.7 80 1009.3 15.2 S 16.8 0.0 0.0
13:10 11.0 7.5 79 1009.3 13.0 SW 16.8 0.0 0.0
13:11 11.0 7.7 80 1009.3 15.2 S 16.8 0.0 0.0
13:12 10.9 7.6 80 1009.3 16.8 SE 16.8 0.0 0.0
13:13 11.0 7.7 80 1009.3 12.1 SE 16.8 0.0 0.0
13:14 11.0 7.7 80 1009.3 12.1 W 16.8 0.0 0.0
13:15 11.1 7.8 80 1009.3 13.6 S 16.8 0.0 0.0
13:16 11.1 7.6 79 1009.3 14.5 S 16.8 0.0 0.0
13:17 11.1 7.6 79 1009.2 15.2 S 16.8 0.0 0.0
13:18 11.0 7.5 79 1009.3 14.5 S 16.8 0.0 0.0
13:19 11.0 7.3 78 1009.2 13.6 S 16.8 0.0 0.0
13:21 10.8 7.1 78 1009.2 12.1 S 16.8 0.0 0.0
13:22 10.8 7.1 78 1009.2 13.0 S 16.8 0.0 0.0
13:23 10.9 7.4 79 1009.3 14.5 S 15.2 0.0 0.0
13:24 10.9 7.4 79 1009.3 11.4 SE 15.2 0.0 0.0
13:25 10.9 7.4 79 1009.2 11.4 SW 15.2 0.0 0.0
13:26 10.9 7.4 79 1009.2 9.8 S 15.2 0.0 0.0
13:27 11.0 7.5 79 1009.3 13.6 S 15.2 0.0 0.0
13:28 11.0 7.5 79 1009.2 10.7 S 14.5 0.0 0.0
13:29 10.9 7.4 79 1009.2 12.1 S 14.5 0.0 0.0
13:30 10.9 7.4 79 1009.1 13.6 S 14.5 0.0 0.0
13:31 10.9 7.4 79 1009.2 13.0 S 14.5 0.0 0.0
13:32 10.8 7.3 79 1009.2 15.2 S 15.2 0.0 0.0
13:33 10.8 7.3 79 1009.0 13.6 S 15.2 0.0 0.0
13:34 10.8 7.3 79 1009.1 11.4 S 15.2 0.0 0.0
13:35 10.8 7.5 80 1009.1 10.7 SE 15.2 0.0 0.0
13:36 10.9 7.6 80 1009.1 12.1 S 15.2 0.0 0.0
13:37 10.9 7.6 80 1009.1 13.0 SE 15.2 0.0 0.0
13:38 10.9 7.6 80 1009.2 19.0 S 19.0 0.0 0.0
13:39 10.9 7.6 80 1008.9 15.2 S 19.0 0.0 0.0
13:40 10.9 7.6 80 1008.9 13.0 S 19.0 0.0 0.0
13:43 10.8 7.3 79 1009.0 13.6 S 19.0 0.0 0.0
13:44 10.7 7.2 79 1008.9 15.2 S 19.0 0.0 0.0
13:45 10.6 7.1 79 1009.0 14.5 SW 19.0 0.0 0.0
13:46 10.6 7.1 79 1008.8 13.0 SW 19.0 0.0 0.0
13:47 10.5 7.0 79 1008.9 13.0 S 19.0 0.0 0.0
13:48 10.5 7.0 79 1008.9 13.6 SW 19.0 0.0 0.0
13:49 10.5 7.2 80 1009.0 10.7 S 16.8 0.0 0.0
13:50 10.5 7.2 80 1008.9 13.0 S 16.8 0.0 0.0
13:51 10.5 7.4 81 1008.9 13.0 S 16.8 0.0 0.0
13:52 10.6 7.5 81 1008.9 10.7 SE 15.2 0.0 0.0
13:53 10.6 7.5 81 1008.9 11.4 S 15.2 0.0 0.0
13:54 10.7 7.6 81 1008.8 12.1 E 14.5 0.0 0.0
13:55 10.7 7.6 81 1008.7 12.1 S 13.6 0.0 0.0
13:56 10.8 7.7 81 1008.8 10.7 S 13.6 0.0 0.0
13:57 10.9 7.8 81 1008.9 13.0 S 13.6 0.0 0.0
13:58 10.9 7.6 80 1008.7 11.4 S 13.6 0.0 0.0
13:59 10.9 7.6 80 1008.9 11.4 S 13.6 0.0 0.0
14:00 10.9 7.6 80 1008.9 11.4 S 13.6 0.0 0.0
14:01 10.7 7.2 79 1008.9 11.4 S 13.6 0.0 0.0
14:02 10.7 7.2 79 1008.9 15.9 S 15.9 0.0 0.0
14:04 10.7 7.2 79 1008.8 13.0 S 15.9 0.0 0.0
14:05 10.7 7.4 80 1008.8 13.0 S 15.9 0.0 0.0
14:06 10.8 7.5 80 1008.9 14.5 SW 15.9 0.0 0.0
14:07 10.9 7.4 79 1008.9 15.2 SW 15.9 0.0 0.0
14:08 10.9 7.4 79 1008.8 13.6 S 15.9 0.0 0.0
14:09 10.9 7.4 79 1008.9 12.1 S 15.9 0.0 0.0
14:11 10.8 7.1 78 1008.8 14.5 S 15.9 0.0 0.0
14:12 10.7 7.0 78 1008.7 11.4 S 15.9 0.0 0.0
14:14 10.6 6.9 78 1009.0 15.2 S 15.2 0.0 0.0
14:16 10.5 6.8 78 1008.8 17.4 S 17.4 0.0 0.0
14:17 10.5 6.8 78 1008.9 13.6 S 17.4 0.0 0.0
14:18 10.5 6.8 78 1008.9 13.0 S 17.4 0.0 0.0
14:19 10.4 6.7 78 1008.7 15.9 S 18.3 0.0 0.0
14:20 10.4 6.7 78 1008.9 15.9 SE 18.3 0.0 0.0
14:21 10.4 6.7 78 1008.7 16.8 S 18.3 0.0 0.0
14:22 10.4 6.9 79 1008.7 13.6 SE 18.3 0.0 0.0
14:23 10.4 6.9 79 1008.9 13.6 S 18.3 0.0 0.0
14:24 10.3 6.6 78 1008.8 14.5 S 18.3 0.0 0.0
14:26 10.3 6.6 78 1008.7 14.5 S 18.3 0.0 0.0
14:27 10.3 6.6 78 1008.7 13.6 S 18.3 0.0 0.0
14:28 10.3 6.8 79 1008.7 13.0 SW 18.3 0.0 0.0
14:29 10.3 6.8 79 1008.7 14.5 WSW 18.3 0.0 0.0
14:30 10.4 6.9 79 1008.7 15.9 S 16.8 0.0 0.0
14:31 10.3 6.8 79 1008.7 14.5 SE 16.8 0.0 0.0
14:32 10.3 6.6 78 1008.7 11.4 S 15.9 0.0 0.0
14:33 10.3 6.6 78 1008.7 10.7 S 15.9 0.0 0.0
14:34 10.3 6.8 79 1008.7 16.8 S 16.8 0.0 0.0
14:35 10.3 6.8 79 1008.7 9.8 SE 16.8 0.0 0.0
14:36 10.4 6.9 79 1008.7 7.6 S 16.8 0.0 0.0
14:38 10.4 7.1 80 1008.6 9.8 SE 16.8 0.0 0.0
14:39 10.4 7.1 80 1008.6 11.4 S 16.8 0.0 0.0
14:40 10.4 7.1 80 1008.7 11.4 SE 16.8 0.0 0.0
14:41 10.4 7.1 80 1008.7 12.1 SE 16.8 0.0 0.0
14:42 10.4 7.1 80 1008.7 10.7 S 16.8 0.0 0.0
14:43 10.4 7.3 81 1008.6 14.5 SE 16.8 0.0 0.0
14:44 10.4 7.3 81 1008.7 11.4 S 14.5 0.0 0.0
14:45 10.4 7.3 81 1008.7 13.0 NNW 14.5 0.0 0.0
14:46 10.5 7.4 81 1008.7 13.6 S 14.5 0.0 0.0
14:48 10.5 7.2 80 1008.8 13.0 SE 16.8 0.0 0.0
14:49 10.5 7.2 80 1008.8 13.6 SE 16.8 0.0 0.0
14:50 10.6 7.3 80 1008.7 17.4 S 17.4 0.0 0.0
14:51 10.6 7.3 80 1008.7 12.1 NW 17.4 0.0 0.0
14:52 10.6 7.3 80 1008.7 13.0 S 17.4 0.0 0.0
14:53 10.6 7.3 80 1008.7 11.4 S 17.4 0.0 0.0
14:54 10.6 7.3 80 1008.7 12.1 SE 17.4 0.0 0.0
14:55 10.7 7.4 80 1008.6 13.6 SE 17.4 0.0 0.0
14:57 10.8 7.5 80 1008.7 10.7 SE 17.4 0.0 0.0
14:58 10.9 7.6 80 1008.8 13.0 SE 17.4 0.0 0.0
14:59 10.9 7.6 80 1008.8 12.1 S 17.4 0.0 0.0
15:00 10.9 7.8 81 1008.7 11.4 S 17.4 0.0 0.0
15:01 10.9 7.8 81 1008.6 11.4 S 15.9 0.0 0.0
15:02 10.9 7.8 81 1008.5 11.4 S 15.9 0.0 0.0
15:03 11.1 7.8 80 1008.7 13.0 S 14.5 0.0 0.0
15:04 11.1 7.8 80 1008.6 13.0 SE 14.5 0.0 0.0
15:05 11.1 7.8 80 1008.6 13.6 S 14.5 0.0 0.0
15:07 11.1 7.6 79 1008.5 12.1 S 14.5 0.0 0.0
15:08 11.2 7.9 80 1008.5 12.1 S 14.5 0.0 0.0
15:09 11.2 7.7 79 1008.4 15.2 SE 15.2 0.0 0.0
15:10 11.1 7.4 78 1008.4 12.1 S 15.9 0.0 0.0
15:11 11.0 7.3 78 1008.3 15.9 S 15.9 0.0 0.0
15:12 11.0 7.3 78 1008.4 15.9 SE 15.9 0.0 0.0
15:13 11.0 7.3 78 1008.5 13.0 S 15.9 0.0 0.0
15:14 10.9 7.2 78 1008.4 12.1 S 15.9 0.0 0.0
15:16 10.8 7.1 78 1008.5 15.2 NW 15.9 0.0 0.0
15:17 10.7 7.0 78 1008.5 14.5 S 15.9 0.0 0.0
15:18 10.8 7.3 79 1008.5 12.1 W 15.9 0.0 0.0
15:19 10.7 7.2 79 1008.4 14.5 SE 15.9 0.0 0.0
15:20 10.7 7.2 79 1008.4 11.4 S 15.9 0.0 0.0
15:21 10.7 7.2 79 1008.2 11.4 S 15.9 0.0 0.0
15:22 10.7 7.2 79 1008.2 16.8 SE 16.8 0.0 0.0
15:23 10.7 7.2 79 1008.5 12.1 W 16.8 0.0 0.0
15:25 10.6 7.1 79 1008.3 16.8 S 16.8 0.0 0.0
15:26 10.6 7.1 79 1008.4 10.7 S 16.8 0.0 0.0
15:27 10.6 7.1 79 1008.4 10.7 S 16.8 0.0 0.0
15:28 10.6 7.1 79 1008.3 13.0 SE 16.8 0.0 0.0
15:29 10.7 7.4 80 1008.3 14.5 S 16.8 0.0 0.0
15:30 10.7 7.4 80 1008.2 12.1 S 16.8 0.0 0.0
15:31 10.7 7.4 80 1008.4 14.5 S 16.8 0.0 0.0
15:32 10.6 7.3 80 1008.4 12.1 S 16.8 0.0 0.0
15:34 10.6 7.3 80 1008.5 13.0 S 16.8 0.0 0.0
15:35 10.5 7.2 80 1008.4 12.1 S 14.5 0.0 0.0
15:36 10.5 7.2 80 1008.4 15.2 SE 15.2 0.0 0.0
15:37 10.5 7.2 80 1008.4 15.2 S 15.2 0.0 0.0
15:38 10.6 7.3 80 1008.3 13.6 S 15.2 0.0 0.0
15:39 10.6 7.3 80 1008.2 13.0 S 15.2 0.0 0.0
15:40 10.6 7.3 80 1008.3 13.0 S 15.2 0.0 0.0
15:41 10.6 7.3 80 1008.3 12.1 SE 15.2 0.0 0.0
15:42 10.6 7.3 80 1008.3 12.1 S 15.2 0.0 0.0
15:44 10.7 7.6 81 1008.2 10.7 S 15.2 0.0 0.0
15:45 10.8 7.7 81 1008.2 11.4 S 15.2 0.0 0.0
15:46 10.8 7.7 81 1008.2 9.8 S 15.2 0.0 0.0
15:49 10.9 7.8 81 1008.2 12.1 S 15.2 0.0 0.0
15:51 10.9 7.8 81 1008.3 9.8 S 15.9 0.0 0.0
15:53 11.0 7.9 81 1008.2 10.7 S 15.9 0.0 0.0
15:55 11.0 7.9 81 1008.2 10.7 SE 15.9 0.0 0.0
15:58 10.9 7.6 80 1008.1 9.8 S 15.9 0.0 0.0
16:01 10.8 7.5 80 1008.2 16.8 S 16.8 0.0 0.0
16:03 10.6 7.3 80 1008.0 11.4 S 16.8 0.0 0.0
16:06 10.5 7.2 80 1008.1 13.0 S 16.8 0.0 0.0
16:08 10.5 7.4 81 1008.2 13.6 SE 16.8 0.0 0.0
16:11 10.3 7.0 80 1008.1 10.7 S 16.8 0.0 0.0
16:12 10.2 6.9 80 1008.1 10.7 S 15.9 0.0 0.0
16:14 10.1 7.0 81 1008.0 11.4 S 15.9 0.0 0.0
16:16 10.0 6.9 81 1008.1 10.7 S 13.6 0.0 0.0
16:18 10.0 7.1 82 1007.9 13.0 SE 14.5 0.0 0.0
16:21 9.8 6.9 82 1008.1 12.1 S 15.2 0.0 0.0
16:23 9.7 6.8 82 1008.0 15.9 SE 16.8 0.0 0.0
16:25 9.6 6.7 82 1008.1 18.3 S 18.3 0.0 0.0
16:27 9.5 6.8 83 1008.1 13.0 S 18.3 0.0 0.0
16:29 9.4 6.7 83 1008.0 12.1 S 18.3 0.0 0.0
16:32 9.4 6.8 84 1007.9 15.9 SE 18.3 0.0 0.0
16:35 9.3 6.7 84 1007.9 11.4 S 16.8 0.0 0.0
16:37 9.3 6.9 85 1008.0 14.5 SE 15.9 0.0 0.0
16:39 9.3 6.9 85 1008.0 11.4 SE 15.9 0.0 0.0
16:41 9.3 6.9 85 1007.9 10.7 SE 15.9 0.0 0.0
16:43 9.3 6.9 85 1007.9 11.4 SE 15.9 0.0 0.0
16:45 9.3 7.1 86 1008.0 13.0 S 14.5 0.0 0.0
16:47 9.3 7.1 86 1008.0 15.2 SE 15.2 0.0 0.0
16:48 9.3 7.1 86 1007.9 13.0 S 15.2 0.0 0.0
16:50 9.3 7.1 86 1007.8 13.6 WNW 15.2 0.0 0.0
16:52 9.3 7.2 87 1007.7 10.7 SE 15.2 0.0 0.0
16:54 9.4 7.3 87 1007.7 16.8 S 16.8 0.0 0.0
16:56 9.4 7.3 87 1007.8 13.0 SE 16.8 0.0 0.0
16:59 9.4 7.3 87 1008.0 10.7 SE 16.8 0.0 0.0
17:00 9.4 7.3 87 1007.7 12.1 S 16.8 0.0 0.0
17:02 9.5 7.4 87 1007.7 9.2 NW 16.8 0.0 0.0
17:05 9.5 7.4 87 1007.7 11.4 SE 13.6 0.0 0.0
17:08 9.5 7.4 87 1007.7 9.8 SE 16.8 0.0 0.0
17:10 9.4 7.3 87 1007.7 12.1 S 16.8 0.0 0.0
17:12 9.4 7.3 87 1007.7 9.8 SE 16.8 0.0 0.0
17:14 9.3 7.2 87 1007.7 13.6 SE 16.8 0.0 0.0
17:16 9.2 7.2 87 1007.6 12.1 SE 16.8 0.0 0.0
17:19 9.2 7.2 87 1007.4 15.9 E 15.9 0.0 0.0
17:21 9.2 7.2 87 1007.5 13.0 S 15.9 0.0 0.0
17:23 9.1 7.1 87 1007.6 9.8 SE 15.9 0.0 0.0
17:26 9.0 7.1 88 1007.4 10.7 SE 15.9 0.0 0.0
17:28 9.0 7.1 88 1007.5 8.3 S 15.9 0.0 0.0
17:30 9.0 7.1 88 1007.5 11.4 SE 13.6 0.0 0.0
17:32 8.9 7.0 88 1007.5 9.8 E 13.6 0.0 0.0
17:34 8.9 7.0 88 1007.3 15.2 S 15.2 0.0 0.0
17:37 8.9 7.0 88 1007.5 7.6 SE 15.2 0.0 0.0
17:38 8.9 7.0 88 1007.4 10.7 SE 15.2 0.0 0.0
17:39 8.9 7.2 89 1007.4 11.4 SE 15.2 0.0 0.0
17:40 8.9 7.2 89 1007.4 13.6 SE 15.2 0.0 0.0
17:41 8.9 7.2 89 1007.4 13.6 SE 15.2 0.0 0.0
17:42 8.8 7.1 89 1007.4 9.8 SE 15.2 0.0 0.0
17:43 8.8 7.1 89 1007.4 10.7 E 15.2 0.0 0.0
17:44 8.8 7.1 89 1007.3 13.0 S 13.6 0.0 0.0
17:45 8.8 7.1 89 1007.3 13.0 SE 13.6 0.0 0.0
17:46 8.8 7.1 89 1007.3 18.3 SE 18.3 0.0 0.0
17:48 8.7 7.0 89 1007.2 9.2 S 18.3 0.0 0.0
17:49 8.7 7.0 89 1007.3 10.7 S 18.3 0.0 0.0
17:50 8.7 7.0 89 1007.3 9.2 SE 18.3 0.0 0.0
17:51 8.7 7.0 89 1007.2 12.1 SE 18.3 0.0 0.0
17:52 8.7 7.0 89 1007.2 10.7 S 18.3 0.0 0.0
17:53 8.7 7.0 89 1007.4 9.2 S 18.3 0.0 0.0
17:54 8.6 7.1 90 1007.3 9.8 SE 18.3 0.0 0.0
17:55 8.6 7.1 90 1007.4 9.8 SE 18.3 0.0 0.0
17:56 8.6 7.1 90 1007.4 9.2 SE 15.2 0.0 0.0
17:57 8.6 7.1 90 1007.4 9.2 SE 13.0 0.0 0.0
17:58 8.6 7.1 90 1007.3 11.4 SE 13.0 0.0 0.0
17:59 8.5 7.0 90 1007.2 12.1 SE 13.6 0.0 0.0
18:00 8.5 7.0 90 1007.1 12.1 SE 13.6 0.0 0.0
18:01 8.5 7.0 90 1007.2 12.1 SE 13.6 0.0 0.0
18:03 8.5 7.0 90 1007.2 11.4 SE 13.6 0.0 0.0
18:04 8.5 7.0 90 1007.2 12.1 SE 13.6 0.0 0.0
18:05 8.4 6.9 90 1007.2 11.4 SE 13.6 0.0 0.0
18:06 8.5 7.1 91 1007.2 12.1 SE 13.6 0.0 0.0
18:07 8.4 6.9 90 1007.1 11.4 SE 13.6 0.0 0.0
18:08 8.4 7.0 91 1007.0 8.3 SE 13.6 0.0 0.0
18:09 8.4 7.0 91 1006.9 10.7 NNE 13.6 0.0 0.0
18:10 8.4 7.0 91 1007.2 15.9 S 15.9 0.0 0.0
18:11 8.4 7.0 91 1007.1 9.2 SE 15.9 0.0 0.0
18:12 8.4 7.0 91 1007.0 6.0 SE 15.9 0.0 0.0
18:14 8.4 7.0 91 1007.1 11.4 SE 15.9 0.0 0.0
18:15 8.3 6.9 91 1007.2 13.6 SE 15.9 0.0 0.0
18:17 8.3 6.9 91 1007.2 7.6 SE 15.9 0.0 0.0
18:18 8.3 6.9 91 1007.1 12.1 SE 15.9 0.0 0.0
18:20 8.3 6.9 91 1007.2 9.8 SE 15.9 0.0 0.0
18:21 8.3 6.9 91 1007.1 9.8 SE 15.9 0.0 0.0
18:22 8.3 6.9 91 1007.0 12.1 SE 15.9 0.0 0.0
18:23 8.3 7.1 92 1007.1 9.2 SE 15.9 0.0 0.0
18:24 8.3 7.1 92 1007.1 9.2 SE 15.9 0.0 0.0
18:25 8.2 7.0 92 1007.1 9.8 SE 13.6 0.0 0.0
18:27 8.3 7.1 92 1007.0 9.2 SE 15.2 0.0 0.0
18:28 8.2 7.0 92 1007.0 14.5 SE 15.2 0.0 0.0
18:29 8.2 7.0 92 1007.0 9.8 SE 15.2 0.0 0.0
18:30 8.2 7.0 92 1007.0 10.7 S 15.2 0.0 0.0
18:31 8.2 7.0 92 1007.0 11.4 SE 15.2 0.0 0.0
18:32 8.2 7.0 92 1007.2 10.7 SE 15.2 0.0 0.0
18:33 8.2 7.0 92 1007.0 10.7 SE 15.2 0.0 0.0
18:34 8.2 7.0 92 1007.1 11.4 SE 15.2 0.0 0.0
18:35 8.2 7.0 92 1007.1 10.7 W 15.2 0.0 0.0
18:36 8.2 7.0 92 1007.0 11.4 E 14.5 0.0 0.0
18:37 8.2 7.1 93 1007.1 9.8 SE 14.5 0.0 0.0
18:38 8.2 7.0 92 1007.0 10.7 SE 13.0 0.0 0.0
18:39 8.2 7.1 93 1007.1 13.0 SE 13.0 0.0 0.0
18:40 8.2 7.1 93 1007.0 9.8 SE 13.0 0.0 0.0
18:41 8.2 7.1 93 1007.0 9.2 SE 13.0 0.0 0.0
18:42 8.2 7.1 93 1007.0 9.2 SE 13.0 0.0 0.0
18:44 8.1 7.0 93 1006.9 9.2 SE 13.0 0.0 0.0
18:45 8.2 7.1 93 1007.0 10.7 S 13.0 0.0 0.0
18:46 8.2 7.1 93 1007.0 10.7 SE 13.0 0.0 0.0
18:47 8.2 7.1 93 1006.9 13.6 S 13.6 0.0 0.0
18:48 8.2 7.1 93 1007.1 9.8 SE 13.6 0.0 0.0
18:49 8.2 7.1 93 1007.1 13.6 S 13.6 0.0 0.0
18:50 8.2 7.1 93 1006.9 9.2 SE 13.6 0.0 0.0
18:51 8.1 7.0 93 1007.0 19.7 S 19.7 0.0 0.0
18:52 8.2 7.1 93 1006.8 16.8 S 19.7 0.0 0.0
18:53 8.2 7.3 94 1006.9 13.6 SE 19.7 0.0 0.0
18:54 8.2 7.3 94 1006.8 15.2 SE 19.7 0.0 0.0
18:55 8.2 7.3 94 1006.8 12.1 SE 19.7 0.0 0.0
18:56 8.2 7.3 94 1006.9 14.5 SE 19.7 0.0 0.0
18:58 8.2 7.3 94 1006.8 15.2 SE 19.7 0.0 0.0
18:59 8.2 7.3 94 1006.7 15.2 SE 19.7 0.0 0.0
19:00 8.2 7.3 94 1006.8 15.2 S 19.7 0.0 0.0
19:01 8.2 7.3 94 1006.8 15.2 S 19.7 0.0 0.0
19:02 8.2 7.3 94 1006.8 15.2 S 16.8 0.0 0.0
19:04 8.2 7.3 94 1006.9 15.2 S 15.2 0.0 0.0
19:05 8.2 7.3 94 1007.0 15.2 S 15.2 0.0 0.0
19:06 8.2 7.3 94 1006.8 13.6 W 15.2 0.0 0.0
19:08 8.3 7.4 94 1006.8 13.0 SE 15.2 0.0 0.0
19:09 8.3 7.4 94 1006.8 13.6 S 15.9 0.0 0.0
19:10 8.2 7.4 95 1006.8 15.2 S 15.9 0.0 0.0
19:11 8.2 7.4 95 1006.9 12.1 SE 15.9 0.0 0.0
19:13 8.3 7.5 95 1006.8 9.8 SE 15.9 0.0 0.0
19:14 8.3 7.5 95 1006.8 13.0 SE 15.9 0.0 0.0
19:15 8.3 7.5 95 1006.8 15.9 S 15.9 0.0 0.0
19:16 8.3 7.5 95 1006.7 12.1 S 15.9 0.0 0.0
19:17 8.3 7.5 95 1006.7 11.4 SE 15.9 0.0 0.0
19:18 8.3 7.5 95 1006.7 10.7 SE 15.9 0.0 0.0
19:19 8.3 7.5 95 1006.7 15.2 E 15.9 0.0 0.0
19:20 8.3 7.5 95 1006.8 11.4 E 15.9 0.0 0.0
19:22 8.3 7.5 95 1006.6 13.6 SE 15.9 0.0 0.0
19:23 8.3 7.5 95 1006.8 11.4 SE 15.9 0.0 0.0
19:24 8.3 7.5 95 1006.8 12.1 SE 15.9 0.0 0.0
19:26 8.3 7.5 95 1006.7 12.1 NE 15.2 0.0 0.0
19:27 8.3 7.5 95 1006.7 16.8 SE 16.8 0.0 0.0
19:28 8.3 7.5 95 1006.8 15.9 SE 16.8 0.0 0.0
19:30 8.3 7.5 95 1006.8 15.9 S 16.8 0.0 0.0
19:31 8.3 7.5 95 1006.8 22.8 S 22.8 0.0 0.0
19:32 8.3 7.5 95 1006.7 18.3 S 22.8 0.0 0.0
19:33 8.3 7.5 95 1006.7 14.5 SE 22.8 0.0 0.0
19:34 8.3 7.7 96 1006.7 13.6 SE 22.8 0.0 0.0
19:35 8.3 7.7 96 1006.5 14.5 SE 22.8 0.0 0.0
19:37 8.3 7.7 96 1006.7 15.9 SE 22.8 0.0 0.0
19:38 8.3 7.7 96 1006.6 10.7 SE 22.8 0.0 0.0
19:39 8.3 7.7 96 1006.7 17.4 SE 22.8 0.0 0.0
19:40 8.3 7.7 96 1006.5 14.5 SE 22.8 0.0 0.0
19:41 8.3 7.7 96 1006.7 11.4 SE 18.3 0.0 0.0
19:43 8.3 7.7 96 1006.7 17.4 S 17.4 0.0 0.0
19:45 8.2 7.6 96 1006.7 13.6 SE 17.4 0.0 0.0
19:46 8.2 7.6 96 1006.6 13.6 SE 17.4 0.0 0.0
19:48 8.2 7.6 96 1006.6 15.2 S 17.4 0.0 0.0
19:49 8.2 7.6 96 1006.7 12.1 SE 17.4 0.0 0.0
19:51 8.2 7.6 96 1006.7 13.0 SE 17.4 0.0 0.0
19:53 8.1 7.5 96 1006.7 13.0 S 15.2 0.0 0.0
19:56 8.1 7.5 96 1006.5 11.4 SE 15.2 0.0 0.0
19:57 8.1 7.5 96 1006.4 13.6 S 15.2 0.0 0.0
19:58 8.1 7.5 96 1006.6 12.1 SE 13.6 0.0 0.0
19:59 8.0 7.4 96 1006.4 16.8 SE 16.8 0.0 0.0
20:00 8.0 7.4 96 1006.4 16.8 SE 16.8 0.0 0.0
20:01 8.0 7.4 96 1006.5 16.8 SE 16.8 0.0 0.0
20:03 8.0 7.4 96 1006.5 16.8 SE 16.8 0.0 0.0
20:04 8.0 7.4 96 1006.5 16.8 SE 16.8 0.0 0.0
20:05 8.0 7.4 96 1006.5 16.8 SE 16.8 0.0 0.0
20:06 8.0 7.4 96 1006.6 14.5 S 16.8 0.0 0.0
20:07 8.0 7.4 96 1006.4 15.9 SE 16.8 0.0 0.0
20:08 8.0 7.4 96 1006.4 11.4 SE 16.8 0.0 0.0
20:10 8.0 7.6 97 1006.3 12.1 SE 16.8 0.0 0.0
20:11 8.0 7.4 96 1006.4 22.8 SE 22.8 0.0 0.0
20:12 8.0 7.6 97 1006.4 17.4 SE 22.8 0.0 0.0
20:14 8.0 7.6 97 1006.5 13.6 SE 22.8 0.0 0.0
20:16 8.0 7.6 97 1006.3 15.9 S 22.8 0.0 0.0
20:18 8.0 7.6 97 1006.5 13.0 SE 22.8 0.0 0.0
20:19 8.0 7.6 97 1006.2 16.8 SE 22.8 0.0 0.0
20:21 8.0 7.6 97 1006.2 10.7 SE 22.8 0.0 0.0
20:23 8.0 7.6 97 1006.3 16.8 WNW 16.8 0.0 0.0
20:25 8.0 7.6 97 1006.2 14.5 SE 16.8 0.0 0.0
20:26 8.0 7.6 97 1005.9 20.6 SE 20.6 0.0 0.0
20:28 8.0 7.6 97 1006.1 11.4 SE 20.6 0.0 0.0
20:29 8.0 7.6 97 1006.0 16.8 SE 20.6 0.0 0.0
20:31 8.0 7.6 97 1005.9 19.7 S 20.6 0.0 0.0
20:32 7.9 7.6 98 1005.9 15.2 SE 20.6 0.0 0.0
20:33 8.1 7.8 98 1005.9 20.6 SE 20.6 0.0 0.0
20:34 8.1 7.8 98 1005.8 17.4 SE 20.6 0.0 0.0
20:36 8.1 7.8 98 1005.9 15.2 SE 20.6 0.0 0.0
20:37 8.1 7.8 98 1006.0 13.0 SE 20.6 0.0 0.0
20:38 8.1 7.8 98 1005.9 13.0 SE 20.6 0.0 0.0
20:39 8.1 7.8 98 1005.8 20.6 SE 20.6 0.0 0.0
20:41 8.1 7.8 98 1005.7 15.9 SE 20.6 0.0 0.0
20:42 8.1 7.8 98 1005.9 20.6 SE 20.6 0.0 0.0
20:43 8.1 7.8 98 1005.8 19.0 SE 20.6 0.0 0.0
20:44 8.1 7.8 98 1006.1 18.3 SE 20.6 0.0 0.0
20:46 8.1 7.8 98 1005.9 14.5 SE 20.6 0.0 0.0
20:47 8.1 7.8 98 1006.0 18.3 S 20.6 0.0 0.0
20:48 8.1 7.8 98 1005.9 17.4 S 20.6 0.0 0.0
20:49 8.1 7.8 98 1005.9 19.7 S 20.6 0.0 0.0
20:50 8.1 7.8 98 1005.8 15.9 SE 20.6 0.0 0.0
20:51 8.1 7.8 98 1005.9 12.1 S 20.6 0.0 0.0
20:52 8.1 7.8 98 1005.9 16.8 S 19.7 0.0 0.0
20:54 8.1 7.8 98 1005.8 15.9 SE 19.7 0.0 0.0
20:55 8.1 7.8 98 1005.7 19.0 SE 19.7 0.0 0.0
20:56 8.1 7.8 98 1005.8 17.4 SE 19.7 0.0 0.0
20:57 8.2 7.9 98 1005.9 16.8 SE 19.7 0.0 0.0
20:58 8.1 7.8 98 1005.7 15.2 SE 19.7 0.0 0.0
20:59 8.2 7.9 98 1005.8 17.4 SE 19.0 0.0 0.0
21:00 8.2 7.9 98 1005.8 17.4 SE 19.0 0.0 0.0
21:02 8.2 7.9 98 1005.9 17.4 SE 19.0 0.0 0.0
21:03 8.2 7.9 98 1005.7 17.4 SE 19.0 0.0 0.0
21:04 8.2 7.9 98 1005.9 17.4 SE 19.0 0.0 0.0
21:06 8.2 8.1 99 1005.8 14.5 SE 17.4 0.0 0.0
21:07 8.2 8.1 99 1005.9 13.6 SE 17.4 0.0 0.0
21:08 8.2 8.1 99 1005.8 19.0 S 19.0 0.0 0.0
21:10 8.2 7.9 98 1005.8 20.6 SE 20.6 0.0 0.0
21:11 8.3 8.2 99 1005.9 18.3 S 20.6 0.0 0.0
21:12 8.3 8.2 99 1005.8 17.4 SE 20.6 0.0 0.0
21:13 8.3 8.0 98 1005.8 14.5 SE 20.6 0.0 0.0
21:14 8.3 8.2 99 1005.8 19.0 SE 20.6 0.0 0.0
21:16 8.3 8.2 99 1005.8 22.8 SE 22.8 0.0 0.0
21:18 8.4 8.3 99 1005.5 18.3 SE 22.8 0.0 0.0
21:20 8.4 8.3 99 1005.7 25.1 SE 25.1 0.0 0.0
21:21 8.4 8.3 99 1005.7 22.1 SE 25.1 0.0 0.0
21:22 8.4 8.3 99 1005.7 22.1 SE 25.1 0.0 0.0
21:23 8.4 8.3 99 1005.7 15.9 SE 25.1 0.0 0.0
21:25 8.5 8.4 99 1005.6 24.4 SE 25.1 0.0 0.0
21:26 8.4 8.3 99 1005.7 18.3 SE 25.1 0.0 0.0
21:27 8.5 8.4 99 1005.6 18.3 SE 25.1 0.0 0.0
21:28 8.5 8.4 99 1005.4 15.9 SE 25.1 0.0 0.0
21:30 8.5 8.4 99 1005.5 15.9 SE 24.4 0.0 0.0
21:31 8.5 8.4 99 1005.6 22.1 SE 24.4 0.0 0.0
21:32 8.5 8.4 99 1005.4 15.9 SE 24.4 0.0 0.0
21:34 8.5 8.4 99 1005.6 23.5 SE 24.4 0.0 0.0
21:35 8.5 8.4 99 1005.4 16.8 SE 24.4 0.0 0.0
21:36 8.5 8.4 99 1005.6 20.6 SE 24.4 0.0 0.0
21:37 8.6 8.5 99 1005.5 18.3 SE 24.4 0.0 0.0
21:38 8.6 8.5 99 1005.5 18.3 NNE 24.4 0.0 0.0
21:40 8.6 8.5 99 1005.5 19.7 SE 24.4 0.0 0.0
21:41 8.6 8.5 99 1005.5 15.2 SE 24.4 0.0 0.0
21:42 8.6 8.5 99 1005.3 20.6 SE 24.4 0.0 0.0
21:43 8.6 8.5 99 1005.3 22.8 SE 23.5 0.0 0.0
21:44 8.6 8.5 99 1005.3 14.5 SE 23.5 0.0 0.0
21:45 8.6 8.5 99 1005.3 13.0 SE 23.5 0.0 0.0
21:46 8.6 8.5 99 1005.5 18.3 SE 23.5 0.0 0.0
21:47 8.6 8.5 99 1005.3 19.7 SE 23.5 0.0 0.0
21:49 8.6 8.5 99 1005.3 22.8 SE 23.5 0.0 0.0
21:50 8.6 8.3 98 1005.3 16.8 SE 23.5 0.0 0.0
21:51 8.6 8.5 99 1005.3 16.8 SE 23.5 0.0 0.0
21:52 8.6 8.3 98 1005.4 22.8 S 23.5 0.0 0.0
21:53 8.7 8.6 99 1005.2 15.2 SE 22.8 0.0 0.0
21:54 8.6 8.5 99 1005.4 19.7 S 22.8 0.0 0.0
21:56 8.6 8.5 99 1005.2 20.6 NW 22.8 0.0 0.0
21:57 8.6 8.5 99 1005.2 17.4 SE 22.8 0.0 0.0
21:58 8.6 8.5 99 1005.2 19.7 SE 22.8 0.0 0.0
21:59 8.7 8.6 99 1005.1 15.9 SE 22.8 0.0 0.0
22:00 8.7 8.6 99 1005.3 15.9 SE 22.8 0.0 0.0
22:01 8.7 8.6 99 1005.0 15.9 SE 22.8 0.0 0.0
22:02 8.7 8.6 99 1005.1 15.9 S 20.6 0.0 0.0
22:04 8.7 8.6 99 1005.1 18.3 S 20.6 0.0 0.0
22:05 8.6 8.5 99 1005.0 16.8 SE 20.6 0.0 0.0
22:06 8.6 8.5 99 1005.2 18.3 SE 20.6 0.0 0.0
22:07 8.6 8.5 99 1005.2 22.1 S 22.1 0.0 0.0
22:08 8.6 8.5 99 1005.0 15.2 SE 22.1 0.0 0.0
22:09 8.6 8.5 99 1005.0 15.9 S 22.1 0.0 0.0
22:11 8.6 8.5 99 1004.9 19.0 S 22.1 0.0 0.0
22:12 8.6 8.5 99 1004.9 18.3 SE 22.1 0.0 0.0
22:13 8.6 8.5 99 1005.0 16.8 S 22.1 0.0 0.0
22:15 8.6 8.5 99 1004.9 18.3 SE 22.1 0.0 0.0
22:17 8.6 8.5 99 1004.9 28.9 S 28.9 0.0 0.0
22:18 8.6 8.5 99 1004.8 13.6 SE 28.9 0.0 0.0
22:20 8.6 8.5 99 1005.0 19.0 SW 28.9 0.0 0.0
22:21 8.6 8.5 99 1004.8 14.5 SE 28.9 0.0 0.0
22:23 8.6 8.5 99 1004.9 18.3 E 28.9 0.0 0.0
22:25 8.6 8.5 99 1004.9 19.0 SE 28.9 0.0 0.0
22:26 8.6 8.5 99 1004.8 15.9 SE 28.9 0.0 0.0
22:28 8.6 8.5 99 1004.8 15.9 SE 20.6 0.0 0.0
22:29 8.6 8.5 99 1004.8 19.0 SE 20.6 0.0 0.0
22:31 8.6 8.5 99 1004.8 22.8 SE 22.8 0.0 0.0
22:32 8.6 8.5 99 1004.9 19.7 SE 22.8 0.0 0.0
22:33 8.6 8.5 99 1004.8 19.7 SE 22.8 0.0 0.0
22:34 8.6 8.5 99 1004.7 23.5 SE 25.1 0.0 0.0
22:35 8.6 8.5 99 1004.7 16.8 S 25.1 0.0 0.0
22:36 8.6 8.5 99 1004.7 17.4 SE 25.1 0.0 0.0
22:38 8.6 8.5 99 1004.7 17.4 S 25.1 0.0 0.0
22:39 8.6 8.5 99 1004.6 19.7 SE 25.1 0.0 0.0
22:40 8.6 8.5 99 1004.7 22.1 S 25.1 0.0 0.0
22:41 8.6 8.5 99 1004.6 13.6 SE 25.1 0.0 0.0
22:42 8.6 8.5 99 1004.6 19.7 SE 25.1 0.0 0.0
22:43 8.6 8.5 99 1004.6 20.6 S 25.1 0.0 0.0
22:44 8.6 8.5 99 1004.5 16.8 SE 23.5 0.0 0.0
22:46 8.6 8.5 99 1004.5 13.0 SW 22.1 0.0 0.0
22:47 8.6 8.5 99 1004.5 20.6 S 22.1 0.0 0.0
22:48 8.6 8.5 99 1004.2 22.8 SE 22.8 0.0 0.0
22:49 8.6 8.5 99 1004.3 18.3 W 22.8 0.0 0.0
22:50 8.7 8.6 99 1004.4 19.0 NE 22.8 0.0 0.0
22:52 8.7 8.6 99 1004.5 17.4 SE 28.9 0.0 0.0
22:53 8.6 8.5 99 1004.4 19.0 S 28.9 0.0 0.0
22:54 8.7 8.6 99 1004.3 15.9 SE 28.9 0.0 0.0
22:55 8.7 8.6 99 1004.3 19.7 SE 28.9 0.0 0.0
22:56 8.7 8.6 99 1004.2 19.7 SE 28.9 0.0 0.0
22:57 8.7 8.6 99 1004.3 21.3 S 28.9 0.0 0.0
22:58 8.7 8.6 99 1004.3 18.3 S 28.9 0.0 0.0
23:00 8.7 8.6 99 1004.3 19.0 SE 28.9 0.0 0.0
23:01 8.7 8.6 99 1004.2 19.0 SE 28.9 0.0 0.0
23:02 8.7 8.6 99 1004.3 19.0 SE 21.3 0.0 0.0
23:03 8.7 8.6 99 1004.2 19.0 SE 21.3 0.0 0.0
23:04 8.7 8.6 99 1004.2 19.0 SE 21.3 0.0 0.0
23:05 8.7 8.6 99 1004.2 19.0 SE 21.3 0.0 0.0
23:06 8.7 8.6 99 1003.9 20.6 SE 21.3 0.0 0.0
23:08 8.7 8.6 99 1004.0 17.4 E 22.1 0.0 0.0
23:09 8.7 8.6 99 1003.9 15.2 S 22.1 0.0 0.0
23:10 8.6 8.5 99 1003.9 18.3 WSW 22.1 0.0 0.0
23:12 8.6 8.5 99 1004.0 20.6 SE 22.1 0.0 0.0
23:13 8.6 8.5 99 1003.9 19.0 SE 22.1 0.0 0.0
23:14 8.6 8.5 99 1004.1 19.0 S 22.1 0.0 0.0
23:15 8.6 8.5 99 1003.9 15.2 S 22.1 0.0 0.0
23:16 8.6 8.5 99 1004.0 20.6 SE 22.1 0.0 0.0
23:17 8.6 8.5 99 1004.1 19.7 SE 21.3 0.0 0.0
23:18 8.6 8.5 99 1004.1 18.3 SE 21.3 0.0 0.0
23:20 8.6 8.5 99 1004.1 15.2 SE 21.3 0.0 0.0
23:21 8.6 8.5 99 1004.1 22.1 S 22.1 0.0 0.0
23:22 8.6 8.5 99 1004.0 14.5 SE 22.1 0.0 0.0
23:23 8.6 8.5 99 1004.1 18.3 S 22.1 0.0 0.0
23:25 8.6 8.5 99 1004.0 17.4 N 22.1 0.0 0.0
23:26 8.6 8.5 99 1003.8 13.6 E 22.8 0.0 0.0
23:28 8.6 8.5 99 1003.9 19.7 SE 24.4 0.0 0.0
23:29 8.6 8.5 99 1003.8 19.7 SE 24.4 0.0 0.0
23:31 8.6 8.5 99 1003.9 19.0 E 24.4 0.0 0.0
23:32 8.6 8.5 99 1003.8 24.4 SE 24.4 0.0 0.0
23:34 8.6 8.5 99 1003.9 15.9 S 24.4 0.0 0.0
23:35 8.6 8.5 99 1003.9 19.0 SE 24.4 0.0 0.0
23:36 8.6 8.5 99 1003.8 14.5 SE 24.4 0.0 0.0
23:37 8.6 8.5 99 1003.7 18.3 SE 24.4 0.0 0.0
23:39 8.7 8.6 99 1003.5 15.9 SE 24.4 0.0 0.0
23:40 8.6 8.5 99 1003.7 14.5 SE 24.4 0.0 0.0
23:41 8.6 8.5 99 1003.7 15.9 SE 24.4 0.0 0.0
23:42 8.6 8.5 99 1003.5 15.9 SE 24.4 0.0 0.0
23:43 8.6 8.5 99 1003.6 15.9 SE 22.1 0.0 0.0
23:44 8.7 8.6 99 1003.7 18.3 N 22.1 0.0 0.0
23:45 8.7 8.6 99 1003.6 15.2 S 22.1 0.0 0.0
23:47 8.7 8.6 99 1003.6 19.0 E 22.1 0.0 0.0
23:48 8.7 8.6 99 1003.5 18.3 SE 22.1 0.0 0.0
23:49 8.7 8.6 99 1003.6 14.5 SE 22.1 0.0 0.0
23:51 8.7 8.6 99 1003.4 15.9 S 22.1 0.0 0.0
23:52 8.7 8.6 99 1003.4 22.1 S 25.1 0.0 0.0
23:54 8.7 8.6 99 1003.3 15.2 E 25.1 0.0 0.0
23:55 8.7 8.6 99 1003.4 13.6 SE 25.1 0.0 0.0
23:57 8.7 8.6 99 1003.4 19.7 SE 25.1 0.0 0.0
23:59 8.7 8.6 99 1003.3 20.6 SE 25.1 0.0 0.0

UK - WEATHER STATION TOPSITES - UK World Weather Websites

This is a private weather station, never base important decisions or events on data from this weather station. Although every effort has been made to make the data as accurate as possible it does not meet MetOffice standards. It is proved as a guide of local weather conditions. We accept no liability for any loss which may arise from use of the data.

Copyright © Carnkie Weather 2009 - 2018.